<- Previous Day | Today | Next Day ->

All Data for 06 December 2021

 

Time A - D Temp A - D Dew Point A - D Humidity A - D Pressure A - D Wind A - D Wind Dir Gust A - D Rain Rate A - D Rain Total
00:00 6.1 3.6 84 1017.0 0.0 S 1.6 0.0 0.0
00:01 6.1 3.6 84 1017.2 0.7 W 1.6 0.0 0.0
00:02 6.1 3.6 84 1017.1 0.0 W 1.6 0.0 0.0
00:03 6.1 3.6 84 1016.9 0.7 S 0.7 0.0 0.0
00:04 6.1 3.4 83 1016.9 0.7 S 0.7 0.0 0.0
00:05 6.1 3.4 83 1016.9 0.7 S 0.7 0.0 0.0
00:07 6.1 3.6 84 1016.8 0.7 N 0.7 0.0 0.0
00:08 6.1 3.6 84 1017.1 0.0 N 0.7 0.0 0.0
00:09 6.1 3.6 84 1017.0 0.0 N 0.7 0.0 0.0
00:10 6.1 3.6 84 1017.0 0.0 W 0.7 0.0 0.0
00:11 6.1 3.6 84 1016.9 0.7 W 0.7 0.0 0.0
00:12 6.1 3.6 84 1016.8 0.7 S 0.7 0.0 0.0
00:13 6.1 3.6 84 1017.1 0.7 S 0.7 0.0 0.0
00:14 6.1 3.6 84 1016.8 0.7 SE 0.7 0.0 0.0
00:15 6.1 3.6 84 1016.9 0.7 E 0.7 0.0 0.0
00:16 6.1 3.6 84 1016.9 0.7 S 0.7 0.0 0.0
00:17 6.1 3.6 84 1016.9 0.7 S 0.7 0.0 0.0
00:18 6.1 3.6 84 1016.7 1.6 S 1.6 0.0 0.0
00:19 6.1 3.6 84 1016.7 1.6 S 1.6 0.0 0.0
00:21 6.1 3.6 84 1016.7 1.6 S 1.6 0.0 0.0
00:22 6.0 3.5 84 1016.7 0.7 SW 1.6 0.0 0.0
00:23 6.0 3.5 84 1016.7 0.0 SW 1.6 0.0 0.0
00:24 6.0 3.5 84 1016.7 0.0 SW 1.6 0.0 0.0
00:25 6.0 3.5 84 1016.6 0.7 NE 1.6 0.0 0.0
00:26 6.0 3.5 84 1016.6 0.7 E 1.6 0.0 0.0
00:27 6.0 3.5 84 1016.6 0.7 SE 1.6 0.0 0.0
00:28 6.0 3.5 84 1016.5 1.6 NE 1.6 0.0 0.0
00:29 6.0 3.5 84 1016.4 1.6 SE 1.6 0.0 0.0
00:30 6.0 3.5 84 1016.3 1.6 S 1.6 0.0 0.0
00:31 6.0 3.5 84 1016.2 1.6 E 1.6 0.0 0.0
00:32 6.0 3.5 84 1016.3 2.2 SSE 2.2 0.0 0.0
00:33 6.0 3.5 84 1016.5 3.1 SE 3.1 0.0 0.0
00:35 6.0 3.5 84 1016.3 3.1 SE 3.1 0.0 0.0
00:36 6.0 3.5 84 1016.4 2.2 SE 3.1 0.0 0.0
00:37 6.0 3.5 84 1016.4 2.2 SSE 3.1 0.0 0.0
00:38 5.9 3.4 84 1016.5 2.2 SE 3.1 0.0 0.0
00:39 6.0 3.5 84 1016.5 0.7 SE 3.1 0.0 0.0
00:40 6.0 3.5 84 1016.3 1.6 SE 3.1 0.0 0.0
00:41 6.0 3.5 84 1016.3 1.6 S 3.1 0.0 0.0
00:42 6.0 3.5 84 1016.3 0.7 S 3.1 0.0 0.0
00:43 6.0 3.5 84 1016.1 0.7 S 3.1 0.0 0.0
00:44 6.0 3.5 84 1016.3 0.7 S 3.1 0.0 0.0
00:45 6.0 3.5 84 1016.4 0.7 S 3.1 0.0 0.0
00:47 6.0 3.5 84 1016.3 0.7 SE 2.2 0.0 0.0
00:49 6.0 3.7 85 1016.3 0.7 SW 1.6 0.0 0.0
00:50 6.0 3.7 85 1016.3 1.6 S 1.6 0.0 0.0
00:51 6.0 3.7 85 1016.2 1.6 SE 1.6 0.0 0.0
00:52 6.0 3.7 85 1016.5 0.7 SE 1.6 0.0 0.0
00:53 6.0 3.7 85 1016.2 0.7 SE 1.6 0.0 0.0
00:54 6.0 3.7 85 1016.3 0.7 SE 1.6 0.0 0.0
00:55 6.0 3.7 85 1016.3 0.7 SE 1.6 0.0 0.0
00:56 6.0 3.7 85 1016.3 1.6 SE 1.6 0.0 0.0
00:57 6.0 3.7 85 1016.4 1.6 SE 1.6 0.0 0.0
00:58 6.0 3.7 85 1016.4 1.6 SE 1.6 0.0 0.0
00:59 6.0 3.7 85 1016.5 1.6 S 1.6 0.0 0.0
01:00 6.0 3.7 85 1016.4 1.6 S 1.6 0.0 0.0
01:01 6.0 3.7 85 1016.4 1.6 S 1.6 0.0 0.0
01:02 6.0 3.7 85 1016.3 1.6 S 1.6 0.0 0.0
01:03 6.0 3.7 85 1016.4 1.6 S 1.6 0.0 0.0
01:05 6.0 3.7 85 1016.3 1.6 S 1.6 0.0 0.0
01:06 6.0 3.7 85 1016.1 1.6 S 1.6 0.0 0.0
01:07 6.0 3.7 85 1016.3 2.2 S 2.2 0.0 0.0
01:08 6.0 3.7 85 1016.1 2.2 S 2.2 0.0 0.0
01:09 6.0 3.7 85 1016.3 2.2 S 2.2 0.0 0.0
01:10 6.0 3.7 85 1016.5 1.6 SE 2.2 0.0 0.0
01:11 6.0 3.7 85 1016.2 0.7 SE 2.2 0.0 0.0
01:12 6.0 3.7 85 1016.4 0.7 E 2.2 0.0 0.0
01:13 6.0 3.7 85 1016.4 0.7 SE 2.2 0.0 0.0
01:14 6.0 3.7 85 1016.1 1.6 SE 2.2 0.0 0.0
01:15 6.0 3.7 85 1016.2 1.6 SE 2.2 0.0 0.0
01:16 6.0 3.7 85 1016.2 1.6 S 2.2 0.0 0.0
01:17 6.0 3.7 85 1016.0 1.6 S 2.2 0.0 0.0
01:19 6.0 3.7 85 1016.3 1.6 S 1.6 0.0 0.0
01:20 6.0 3.7 85 1016.1 1.6 S 1.6 0.0 0.0
01:21 6.0 3.7 85 1016.2 1.6 S 1.6 0.0 0.0
01:22 6.0 3.7 85 1016.2 1.6 S 1.6 0.0 0.0
01:23 6.0 3.7 85 1016.0 1.6 S 1.6 0.0 0.0
01:24 6.0 3.7 85 1016.1 0.7 S 1.6 0.0 0.0
01:25 6.0 3.7 85 1016.1 1.6 S 1.6 0.0 0.0
01:26 6.0 3.7 85 1016.1 1.6 S 1.6 0.0 0.0
01:27 6.0 3.7 85 1016.0 1.6 S 1.6 0.0 0.0
01:28 6.0 3.7 85 1015.9 0.0 NE 1.6 0.0 0.0
01:29 6.0 3.7 85 1015.8 0.7 NE 1.6 0.0 0.0
01:30 6.1 3.8 85 1015.8 0.7 NE 1.6 0.0 0.0
01:31 6.1 3.8 85 1015.8 0.7 NE 1.6 0.0 0.0
01:33 6.1 3.8 85 1015.6 0.7 SE 1.6 0.0 0.0
01:34 6.1 3.8 85 1015.5 0.7 SE 1.6 0.0 0.0
01:35 6.1 3.8 85 1015.8 0.7 E 1.6 0.0 0.0
01:36 6.1 3.8 85 1015.7 0.7 NE 1.6 0.0 0.0
01:37 6.1 3.8 85 1015.8 0.7 SE 1.6 0.0 0.0
01:38 6.1 3.8 85 1015.7 0.7 SE 1.6 0.0 0.0
01:39 6.1 3.8 85 1015.7 0.7 SE 1.6 0.0 0.0
01:40 6.1 3.8 85 1015.6 1.6 S 1.6 0.0 0.0
01:41 6.1 3.8 85 1015.7 0.7 SE 1.6 0.0 0.0
01:42 6.1 3.8 85 1015.8 1.6 S 1.6 0.0 0.0
01:43 6.1 3.8 85 1015.6 1.6 SE 1.6 0.0 0.0
01:44 6.1 3.8 85 1015.6 2.2 S 2.2 0.0 0.0
01:45 6.1 3.8 85 1015.5 2.2 SE 2.2 0.0 0.0
01:46 6.1 3.8 85 1015.4 2.2 S 2.2 0.0 0.0
01:47 6.1 3.8 85 1015.6 2.2 S 2.2 0.0 0.0
01:49 6.2 4.0 86 1015.4 2.2 S 2.2 0.0 0.0
01:50 6.2 4.0 86 1015.5 3.1 SSE 3.1 0.0 0.0
01:51 6.2 4.0 86 1015.3 2.2 S 3.1 0.0 0.0
01:52 6.2 4.0 86 1015.2 3.1 S 3.1 0.0 0.0
01:53 6.2 4.0 86 1015.1 3.1 S 3.1 0.0 0.0
01:54 6.2 4.0 86 1015.1 3.1 S 3.1 0.0 0.0
01:55 6.2 4.0 86 1015.2 3.1 SSE 3.1 0.0 0.0
01:56 6.2 4.0 86 1015.1 3.1 S 3.1 0.0 0.0
01:57 6.2 4.0 86 1015.3 2.2 S 3.1 0.0 0.0
01:58 6.3 4.1 86 1015.1 2.2 S 3.1 0.0 0.0
01:59 6.3 4.1 86 1015.1 2.2 SW 3.1 0.0 0.0
02:00 6.3 4.1 86 1015.3 1.6 SW 3.1 0.0 0.0
02:01 6.3 4.1 86 1015.0 1.6 SW 3.1 0.0 0.0
02:02 6.3 4.1 86 1015.1 1.6 SW 3.1 0.0 0.0
02:04 6.3 4.1 86 1015.1 1.6 SW 3.1 0.0 0.0
02:05 6.3 4.1 86 1015.1 0.7 SW 3.1 0.0 0.0
02:06 6.3 4.1 86 1014.9 0.7 SW 3.1 0.0 0.0
02:07 6.3 4.1 86 1015.1 1.6 S 2.2 0.0 0.0
02:08 6.3 4.1 86 1015.1 2.2 SW 2.2 0.0 0.0
02:09 6.3 4.1 86 1015.0 1.6 S 2.2 0.0 0.0
02:10 6.2 4.0 86 1014.9 2.2 S 2.2 0.0 0.0
02:11 6.3 4.1 86 1015.0 2.2 S 2.2 0.0 0.0
02:12 6.3 4.3 87 1015.0 4.5 S 4.5 0.0 0.0
02:13 6.3 4.3 87 1014.9 4.5 SW 4.5 0.0 0.0
02:14 6.3 4.3 87 1015.1 4.5 SW 4.5 0.0 0.0
02:15 6.3 4.3 87 1015.0 4.5 SSW 4.5 0.0 0.0
02:16 6.3 4.3 87 1015.1 4.5 S 4.5 0.0 0.0
02:17 6.3 4.3 87 1015.1 4.5 S 4.5 0.0 0.0
02:19 6.3 4.3 87 1015.0 3.1 W 4.5 0.0 0.0
02:20 6.3 4.3 87 1014.9 2.2 SW 4.5 0.0 0.0
02:21 6.3 4.3 87 1014.9 2.2 SW 4.5 0.0 0.0
02:22 6.3 4.3 87 1014.8 2.2 SW 4.5 0.0 0.0
02:23 6.3 4.3 87 1014.9 2.2 W 4.5 0.0 0.0
02:24 6.3 4.3 87 1014.9 2.2 SW 4.5 0.0 0.0
02:25 6.3 4.3 87 1014.8 2.2 SW 4.5 0.0 0.0
02:26 6.3 4.3 87 1015.1 2.2 SW 4.5 0.0 0.0
02:27 6.3 4.3 87 1015.0 3.1 WSW 4.5 0.0 0.0
02:28 6.3 4.3 87 1014.9 3.8 W 3.8 0.0 0.0
02:29 6.3 4.5 88 1015.0 3.8 SW 3.8 0.0 0.0
02:30 6.3 4.5 88 1014.8 3.8 SW 3.8 0.0 0.0
02:31 6.3 4.5 88 1015.0 3.8 SW 3.8 0.0 0.0
02:33 6.3 4.5 88 1015.0 3.1 SW 3.8 0.0 0.0
02:34 6.3 4.5 88 1014.9 3.8 S 3.8 0.0 0.0
02:35 6.3 4.5 88 1014.9 3.8 SW 3.8 0.0 0.0
02:36 6.3 4.5 88 1015.0 2.2 S 3.8 0.0 0.0
02:37 6.3 4.5 88 1014.9 3.8 SW 3.8 0.0 0.0
02:38 6.3 4.5 88 1015.0 3.1 SW 3.8 0.0 0.0
02:39 6.3 4.5 88 1015.1 3.1 SW 3.8 0.0 0.0
02:40 6.3 4.5 88 1014.8 3.1 SW 3.8 0.0 0.0
02:41 6.3 4.5 88 1014.6 3.1 SW 3.8 0.0 0.0
02:42 6.3 4.5 88 1014.9 3.8 S 3.8 0.0 0.0
02:43 6.4 4.7 89 1014.7 4.5 SW 4.5 0.0 0.0
02:44 6.4 4.7 89 1014.9 3.8 S 4.5 0.0 0.0
02:45 6.4 4.7 89 1014.6 3.8 SW 4.5 0.0 0.0
02:47 6.4 4.7 89 1014.7 4.5 SE 4.5 0.0 0.0
02:48 6.4 4.7 89 1014.6 4.5 SE 4.5 0.0 0.0
02:49 6.5 4.8 89 1014.5 5.4 S 5.4 0.0 0.0
02:50 6.5 4.8 89 1014.8 3.8 SW 5.4 0.0 0.0
02:51 6.5 4.8 89 1014.6 3.8 S 5.4 0.0 0.0
02:52 6.5 4.8 89 1014.7 3.1 S 5.4 0.0 0.0
02:53 6.5 4.8 89 1014.8 3.8 S 5.4 0.0 0.0
02:54 6.6 4.9 89 1014.5 3.8 SW 5.4 0.0 0.0
02:55 6.6 4.9 89 1014.5 3.8 SW 5.4 0.0 0.0
02:56 6.6 4.9 89 1014.5 5.4 SW 5.4 0.0 0.0
02:57 6.6 4.9 89 1014.6 4.5 SW 5.4 0.0 0.0
02:58 6.6 4.9 89 1014.5 4.5 S 5.4 0.0 0.0
02:59 6.6 4.9 89 1014.3 5.4 S 5.4 0.0 0.0
03:01 6.6 4.9 89 1014.2 5.4 S 5.4 0.0 0.0
03:02 6.6 4.9 89 1014.3 5.4 S 5.4 0.0 0.0
03:03 6.6 4.9 89 1014.1 5.4 S 5.4 0.0 0.0
03:04 6.6 4.9 89 1014.3 5.4 S 5.4 0.0 0.0
03:05 6.6 4.9 89 1014.1 5.4 S 5.4 0.0 0.0
03:06 6.6 4.9 89 1014.2 5.4 S 5.4 0.0 0.0
03:07 6.8 5.0 88 1014.1 6.0 WSW 6.0 0.0 0.0
03:08 6.8 5.0 88 1014.1 6.9 SSW 6.9 0.0 0.0
03:09 6.8 5.0 88 1014.0 6.0 S 6.9 0.0 0.0
03:10 6.8 5.0 88 1014.2 6.9 S 6.9 0.0 0.0
03:11 6.9 5.1 88 1014.1 7.6 SE 7.6 0.0 0.0
03:12 6.9 5.1 88 1013.9 6.0 S 7.6 0.0 0.0
03:13 6.9 5.1 88 1014.0 6.0 S 7.6 0.0 0.0
03:15 6.9 5.1 88 1014.0 9.8 S 9.8 0.0 0.0
03:16 6.9 5.1 88 1013.7 9.8 S 9.8 0.0 0.0
03:17 6.9 5.1 88 1013.9 8.3 SW 9.8 0.0 0.0
03:18 7.0 5.2 88 1013.7 6.0 S 9.8 0.0 0.0
03:19 7.0 5.2 88 1013.9 6.0 S 9.8 0.0 0.0
03:20 7.0 5.2 88 1013.7 8.3 S 9.8 0.0 0.0
03:21 7.0 5.0 87 1013.7 6.9 S 9.8 0.0 0.0
03:22 7.0 5.0 87 1014.1 7.6 S 9.8 0.0 0.0
03:23 7.0 5.0 87 1013.8 7.6 S 9.8 0.0 0.0
03:24 7.0 5.0 87 1013.8 9.8 SW 9.8 0.0 0.0
03:25 7.0 5.0 87 1014.1 7.6 S 9.8 0.0 0.0
03:26 7.1 5.1 87 1013.8 8.3 SW 9.8 0.0 0.0
03:27 7.1 5.1 87 1014.0 9.2 NW 9.8 0.0 0.0
03:29 7.2 5.2 87 1014.0 7.6 S 9.8 0.0 0.0
03:30 7.2 5.2 87 1014.0 8.3 S 9.8 0.0 0.0
03:31 7.2 5.2 87 1013.8 9.2 S 9.8 0.0 0.0
03:32 7.2 5.2 87 1013.8 9.2 SW 9.8 0.0 0.0
03:33 7.2 5.2 87 1013.8 8.3 S 9.8 0.0 0.0
03:34 7.2 5.0 86 1013.8 7.6 S 9.8 0.0 0.0
03:35 7.3 5.1 86 1013.7 8.3 SW 9.8 0.0 0.0
03:36 7.3 5.1 86 1013.7 9.8 S 9.8 0.0 0.0
03:37 7.3 5.1 86 1013.7 9.2 SW 9.8 0.0 0.0
03:38 7.4 5.2 86 1013.7 8.3 S 9.8 0.0 0.0
03:39 7.4 5.2 86 1013.9 8.3 S 9.8 0.0 0.0
03:40 7.4 5.2 86 1013.6 7.6 SW 9.8 0.0 0.0
03:41 7.4 5.2 86 1013.5 8.3 SW 9.8 0.0 0.0
03:43 7.4 5.2 86 1013.7 9.2 SW 9.8 0.0 0.0
03:44 7.5 4.5 81 1013.7 8.3 S 9.8 0.0 0.0
03:45 7.5 4.5 81 1013.6 10.7 S 10.7 0.0 0.0
03:46 7.5 4.5 81 1013.6 8.3 S 10.7 0.0 0.0
03:47 7.5 4.5 81 1013.6 8.3 S 10.7 0.0 0.0
03:48 7.6 4.6 81 1013.6 8.3 SSW 10.7 0.0 0.0
03:49 7.6 4.4 80 1013.5 8.3 S 10.7 0.0 0.0
03:50 7.6 4.4 80 1013.6 7.6 SW 10.7 0.0 0.0
03:51 7.6 4.4 80 1013.4 9.2 S 10.7 0.0 0.0
03:52 7.6 4.4 80 1013.4 10.7 NE 10.7 0.0 0.0
03:53 7.7 4.5 80 1013.3 7.6 W 10.7 0.0 0.0
03:54 7.7 4.5 80 1013.5 6.9 S 10.7 0.0 0.0
03:55 7.7 4.5 80 1013.2 10.7 S 10.7 0.0 0.0
03:57 7.7 4.5 80 1013.2 9.8 S 10.7 0.0 0.0
03:58 7.7 4.5 80 1013.2 9.2 S 10.7 0.0 0.0
03:59 7.7 4.5 80 1013.1 8.3 SW 10.7 0.0 0.0
04:00 7.8 4.6 80 1013.1 8.3 SW 10.7 0.0 0.0
04:01 7.8 4.6 80 1013.2 9.2 S 10.7 0.0 0.0
04:02 7.8 4.6 80 1013.3 9.2 S 10.7 0.0 0.0
04:03 7.8 4.6 80 1013.2 8.3 SW 10.7 0.0 0.0
04:04 7.8 4.6 80 1012.8 8.3 SSE 10.7 0.0 0.0
04:05 7.8 4.6 80 1013.0 9.8 S 10.7 0.0 0.0
04:06 7.8 4.6 80 1012.9 9.8 SW 10.7 0.0 0.0
04:07 7.8 4.7 81 1013.0 8.3 S 9.8 0.0 0.0
04:08 7.8 4.7 81 1012.9 8.3 S 9.8 0.0 0.0
04:09 7.8 4.7 81 1012.7 6.9 S 9.8 0.0 0.0
04:11 7.8 4.7 81 1012.9 8.3 SW 9.8 0.0 0.0
04:12 7.8 4.7 81 1012.9 9.8 S 9.8 0.0 0.0
04:13 7.8 4.7 81 1012.9 9.8 SW 9.8 0.0 0.0
04:14 7.8 4.7 81 1012.8 13.6 SW 13.6 0.0 0.0
04:15 7.8 4.7 81 1012.8 13.6 SW 13.6 0.8 0.1
04:16 7.8 4.7 81 1013.1 10.7 S 13.6 0.8 0.1
04:17 7.8 4.7 81 1012.8 10.7 S 13.6 0.8 0.1
04:18 7.8 4.7 81 1012.6 13.0 SW 13.6 0.8 0.1
04:19 7.9 5.0 82 1012.7 13.0 S 13.6 0.8 0.1
04:20 7.9 5.0 82 1012.7 13.6 S 13.6 0.0 0.1
04:21 7.9 5.0 82 1012.8 12.1 S 13.6 0.0 0.1
04:22 7.9 5.0 82 1012.8 14.5 SW 14.5 0.0 0.1
04:23 7.9 5.0 82 1012.5 9.8 SSW 14.5 0.0 0.1
04:25 7.9 5.0 82 1012.5 10.7 SW 14.5 0.0 0.1
04:26 7.9 5.2 83 1012.5 9.2 SSE 14.5 0.0 0.1
04:27 7.9 5.2 83 1012.6 9.2 SSE 14.5 0.0 0.1
04:28 7.9 5.2 83 1012.5 10.7 SW 14.5 0.0 0.1
04:29 7.9 5.2 83 1012.7 11.4 SW 14.5 0.0 0.1
04:30 7.9 5.2 83 1012.6 11.4 S 14.5 0.0 0.1
04:31 7.9 5.2 83 1012.7 8.3 S 14.5 0.0 0.1
04:32 7.9 5.2 83 1012.5 7.6 SSE 14.5 0.0 0.1
04:33 7.9 5.2 83 1012.6 7.6 W 11.4 0.0 0.1
04:34 7.9 5.2 83 1012.6 7.6 SW 11.4 0.0 0.1
04:35 7.8 5.3 84 1012.6 8.3 S 11.4 0.0 0.1
04:36 7.8 5.3 84 1012.5 8.3 S 11.4 0.0 0.1
04:37 7.8 5.3 84 1012.8 8.3 S 11.4 0.0 0.1
04:39 7.9 5.4 84 1012.6 9.2 SW 13.0 0.0 0.1
04:40 7.9 5.4 84 1012.7 15.9 S 15.9 0.0 0.1
04:41 7.9 5.5 85 1012.6 13.0 S 15.9 0.0 0.1
04:42 7.9 5.5 85 1012.5 11.4 S 15.9 0.0 0.1
04:43 7.9 5.5 85 1012.5 9.8 W 15.9 0.8 0.1
04:44 8.0 5.6 85 1012.3 11.4 S 15.9 0.8 0.1
04:45 8.0 5.6 85 1012.4 10.7 SW 15.9 0.8 0.1
04:46 8.0 5.8 86 1012.4 9.2 S 15.9 0.8 0.1
04:47 8.0 5.8 86 1012.4 8.3 S 15.9 0.8 0.1
04:48 8.0 5.8 86 1012.5 9.8 S 15.9 0.0 0.1
04:49 8.0 5.8 86 1012.3 10.7 S 15.9 0.0 0.1
04:50 8.0 5.8 86 1012.2 10.7 SE 15.9 0.0 0.1
04:51 8.0 5.8 86 1012.5 13.6 S 13.6 0.0 0.1
04:53 8.0 6.0 87 1012.2 9.8 S 13.6 0.0 0.1
04:54 8.0 6.0 87 1011.9 12.1 S 13.6 0.0 0.1
04:55 8.1 6.1 87 1012.3 10.7 S 13.6 0.0 0.1
04:56 8.1 6.1 87 1012.1 10.7 SW 13.6 0.0 0.1
04:57 8.1 6.1 87 1012.0 9.2 SW 13.6 0.0 0.1
04:58 8.1 6.2 88 1012.1 9.8 S 13.6 0.0 0.1
04:59 8.1 6.2 88 1012.1 11.4 SW 13.6 0.0 0.1
05:00 8.1 6.2 88 1012.3 11.4 SW 13.6 0.0 0.1
05:01 8.1 6.2 88 1012.0 11.4 SW 13.6 0.0 0.1
05:02 8.1 6.2 88 1012.1 11.4 SW 13.6 0.0 0.1
05:03 8.1 6.2 88 1011.9 11.4 SW 12.1 0.0 0.1
05:04 8.1 6.2 88 1012.1 11.4 SW 12.1 0.0 0.1
05:05 8.1 6.2 88 1012.1 11.4 SW 11.4 0.0 0.1
05:07 8.2 6.5 89 1011.8 10.7 S 11.4 0.0 0.1
05:08 8.3 6.6 89 1011.9 10.7 SW 11.4 0.0 0.1
05:09 8.3 6.6 89 1012.1 9.2 SW 11.4 0.0 0.1
05:10 8.3 6.6 89 1011.9 11.4 S 11.4 0.0 0.1
05:11 8.3 6.6 89 1012.1 9.8 S 11.4 0.0 0.1
05:12 8.3 6.6 89 1011.7 12.1 SSE 12.1 0.0 0.1
05:13 8.3 6.6 89 1012.0 12.1 SE 12.1 0.0 0.1
05:14 8.3 6.6 89 1011.7 12.1 S 12.1 0.0 0.1
05:15 8.3 6.6 89 1011.6 15.2 S 15.2 0.0 0.1
05:16 8.4 6.7 89 1011.9 9.2 SW 15.2 0.0 0.2
05:17 8.4 6.7 89 1011.8 12.1 S 15.2 0.8 0.2
05:18 8.4 6.7 89 1011.7 10.7 NE 15.2 0.8 0.2
05:19 8.4 6.9 90 1011.8 11.4 S 15.2 0.8 0.2
05:21 8.4 6.9 90 1011.7 12.1 SW 15.2 0.8 0.2
05:22 8.4 6.9 90 1011.8 13.0 S 15.2 0.8 0.3
05:23 8.5 7.0 90 1011.6 13.6 SW 15.2 0.8 0.3
05:24 8.5 7.0 90 1011.5 14.5 S 15.2 0.8 0.3
05:25 8.5 7.0 90 1011.5 14.5 S 14.5 0.8 0.3
05:26 8.5 7.0 90 1011.5 15.9 S 15.9 0.8 0.3
05:27 8.5 7.0 90 1011.3 13.6 WSW 15.9 0.0 0.3
05:28 8.5 7.0 90 1011.5 10.7 S 15.9 0.0 0.3
05:29 8.5 7.0 90 1011.4 13.6 S 15.9 0.8 0.3
05:30 8.5 7.0 90 1011.4 13.6 NW 15.9 0.8 0.3
05:31 8.5 7.0 90 1011.3 13.6 SSW 15.9 0.8 0.3
05:32 8.5 7.0 90 1011.4 16.8 S 16.8 0.8 0.3
05:33 8.5 7.0 90 1011.2 13.6 NW 16.8 0.8 0.4
05:35 8.5 7.1 91 1011.3 9.8 S 16.8 0.8 0.4
05:36 8.5 7.1 91 1011.4 13.0 S 16.8 0.8 0.4
05:37 8.5 7.1 91 1011.1 13.0 SSE 16.8 0.8 0.4
05:38 8.5 7.1 91 1011.1 17.4 S 17.4 0.8 0.4
05:39 8.5 7.1 91 1010.9 17.4 S 17.4 0.0 0.4
05:40 8.5 7.1 91 1010.9 15.9 S 17.4 0.0 0.4
05:41 8.5 7.1 91 1010.9 12.1 S 17.4 0.0 0.4
05:42 8.5 7.1 91 1010.7 14.5 WSW 17.4 0.0 0.4
05:43 8.5 7.1 91 1010.8 13.6 S 17.4 0.0 0.4
05:44 8.5 7.1 91 1010.8 13.0 S 17.4 0.8 0.4
05:45 8.5 7.1 91 1011.0 14.5 S 17.4 0.8 0.4
05:46 8.5 7.1 91 1010.7 10.7 S 17.4 0.8 0.4
05:47 8.5 7.1 91 1010.9 16.8 S 17.4 0.8 0.4
05:49 8.5 7.1 91 1010.9 22.1 SSW 22.1 0.0 0.4
05:50 8.5 7.1 91 1010.7 16.8 SW 22.1 0.0 0.4
05:51 8.5 7.3 92 1010.8 16.8 S 22.1 0.0 0.4
05:52 8.5 7.3 92 1010.6 14.5 SW 22.1 0.0 0.5
05:53 8.6 7.4 92 1010.6 13.0 S 22.1 0.8 0.5
05:54 8.6 7.4 92 1010.8 13.0 S 22.1 0.8 0.5
05:55 8.6 7.4 92 1010.8 15.2 S 22.1 0.8 0.5
05:56 8.6 7.4 92 1010.5 12.1 S 22.1 0.8 0.5
05:57 8.6 7.4 92 1010.6 15.9 S 22.1 0.8 0.5
05:58 8.6 7.4 92 1010.7 13.0 S 22.1 0.0 0.5
05:59 8.6 7.4 92 1010.6 11.4 SW 22.1 0.0 0.6
06:00 8.6 7.4 92 1010.6 9.2 S 16.8 0.8 0.6
06:01 8.6 7.4 92 1010.6 12.1 SW 16.8 0.8 0.6
06:03 8.7 7.5 92 1010.3 16.8 WSW 16.8 0.8 0.6
06:04 8.7 7.5 92 1010.1 19.0 S 19.0 0.8 0.6
06:05 8.7 7.5 92 1010.4 13.6 S 19.0 0.0 0.6
06:06 8.7 7.5 92 1010.1 17.4 S 19.0 0.0 0.6
06:07 8.7 7.5 92 1010.3 15.9 SW 19.0 0.0 0.6
06:08 8.7 7.6 93 1010.3 16.8 SW 19.0 0.0 0.6
06:09 8.7 7.6 93 1010.2 12.1 NE 19.0 0.0 0.6
06:10 8.7 7.6 93 1010.3 13.6 S 19.0 0.8 0.6
06:11 8.7 7.6 93 1010.3 12.1 S 19.0 0.8 0.6
06:12 8.7 7.6 93 1010.1 17.4 S 19.0 0.8 0.6
06:13 8.7 7.6 93 1010.2 17.4 S 19.0 0.8 0.6
06:14 8.7 7.6 93 1010.0 16.8 S 19.0 0.8 0.6
06:15 8.7 7.6 93 1010.1 15.2 S 19.0 0.0 0.6
06:17 8.7 7.6 93 1010.3 17.4 SW 19.0 0.8 0.7
06:18 8.8 7.7 93 1010.3 16.8 SW 19.0 0.8 0.7
06:19 8.8 7.7 93 1010.0 16.8 SW 19.0 0.8 0.7
06:20 8.8 7.7 93 1010.2 13.0 S 19.0 0.8 0.7
06:21 8.8 7.7 93 1009.9 13.6 SW 19.0 0.8 0.7
06:22 8.8 7.7 93 1010.1 11.4 S 17.4 0.0 0.7
06:23 8.8 7.7 93 1010.0 11.4 SSE 17.4 0.0 0.7
06:24 8.8 7.7 93 1010.1 15.9 S 17.4 0.8 0.8
06:25 8.8 7.7 93 1010.1 15.2 SSW 17.4 0.8 0.8
06:26 8.8 7.7 93 1010.0 15.2 S 17.4 0.8 0.8
06:27 8.8 7.7 93 1010.0 12.1 S 16.8 0.8 0.8
06:28 8.8 7.9 94 1010.0 16.8 WSW 16.8 0.8 0.8
06:29 8.8 7.9 94 1010.0 12.1 S 16.8 0.8 0.8
06:31 8.8 7.9 94 1009.8 13.6 SW 18.3 0.8 0.8
06:32 8.8 7.9 94 1009.8 15.9 S 18.3 0.8 0.8
06:33 8.8 7.9 94 1009.7 17.4 SW 18.3 0.8 0.9
06:34 8.9 8.0 94 1009.6 18.3 S 18.3 0.8 0.9
06:35 8.9 8.0 94 1009.7 14.5 S 18.3 0.8 0.9
06:36 8.9 8.0 94 1009.7 20.6 SW 20.6 1.5 0.9
06:37 8.9 8.0 94 1009.7 15.2 SW 20.6 1.5 0.9
06:38 8.9 8.0 94 1009.7 16.8 S 20.6 2.3 1.0
06:39 8.9 8.0 94 1009.8 15.2 WSW 20.6 1.5 1.0
06:40 9.0 8.1 94 1009.7 13.0 S 20.6 1.5 1.1
06:41 9.0 8.1 94 1009.7 13.0 S 20.6 1.5 1.1
06:42 9.0 8.1 94 1009.8 18.3 S 20.6 2.3 1.1
06:43 9.0 8.1 94 1009.8 15.2 S 20.6 1.5 1.1
06:45 9.0 8.1 94 1009.5 15.2 S 20.6 1.5 1.2
06:46 9.0 8.1 94 1009.5 12.1 S 20.6 1.5 1.2
06:47 9.0 8.1 94 1009.4 12.1 SW 18.3 0.8 1.3
06:48 9.0 8.1 94 1009.6 21.3 S 21.3 1.5 1.3
06:49 9.0 8.1 94 1009.3 19.7 S 21.3 1.5 1.3
06:50 9.1 8.3 95 1009.4 17.4 SW 21.3 1.5 1.3
06:51 9.1 8.3 95 1009.5 15.2 SE 21.3 0.8 1.3
06:52 9.1 8.3 95 1009.5 19.0 SW 21.3 1.5 1.3
06:53 9.1 8.3 95 1009.5 15.2 S 21.3 0.8 1.3
06:54 9.1 8.3 95 1009.6 14.5 SW 21.3 1.5 1.4
06:55 9.1 8.3 95 1009.6 16.8 S 21.3 1.5 1.4
06:56 9.1 8.3 95 1009.4 17.4 S 21.3 1.5 1.4
06:57 9.1 8.3 95 1009.4 15.2 S 21.3 0.8 1.4
06:59 9.1 8.3 95 1009.5 14.5 S 19.0 0.8 1.5
07:00 9.1 8.3 95 1009.4 14.5 S 19.0 1.5 1.5
07:01 9.1 8.3 95 1009.6 14.5 S 19.0 1.5 1.5
07:02 9.1 8.3 95 1009.4 14.5 S 19.0 1.5 1.5
07:03 9.1 8.3 95 1009.4 14.5 S 17.4 0.8 1.5
07:04 9.1 8.3 95 1009.4 14.5 S 17.4 0.8 1.5
07:05 9.1 8.3 95 1009.4 14.5 S 17.4 0.0 1.5
07:06 9.1 8.3 95 1009.3 14.5 S 17.4 0.0 1.5
07:07 9.2 8.4 95 1009.5 11.4 S 16.8 2.3 1.7
07:08 9.2 8.4 95 1009.5 12.1 S 16.8 3.0 1.8
07:09 9.2 8.4 95 1009.3 13.0 SW 15.2 3.0 1.8
07:10 9.3 8.5 95 1009.6 17.4 WSW 17.4 3.8 1.8
07:11 9.3 8.5 95 1009.8 14.5 S 17.4 3.8 1.8
07:12 9.3 8.5 95 1009.5 14.5 S 17.4 1.5 1.8
07:14 9.3 8.5 95 1009.4 12.1 SSW 17.4 1.5 1.9
07:15 9.3 8.5 95 1009.4 14.5 SW 17.4 0.8 2.0
07:16 9.3 8.7 96 1009.2 15.9 SW 17.4 1.5 2.0
07:17 9.3 8.7 96 1009.3 13.0 S 17.4 1.5 2.0
07:18 9.3 8.7 96 1009.4 11.4 S 17.4 2.3 2.0
07:19 9.4 8.8 96 1009.1 13.0 S 17.4 2.3 2.1
07:20 9.4 8.8 96 1009.2 9.8 SW 17.4 2.3 2.1
07:21 9.4 8.8 96 1009.2 14.5 S 17.4 2.3 2.1
07:22 9.4 8.8 96 1009.2 14.5 S 15.9 2.3 2.1
07:23 9.4 8.8 96 1009.0 14.5 S 15.9 3.0 2.3
07:24 9.4 8.8 96 1009.3 13.6 SW 15.9 2.3 2.3
07:25 9.5 8.9 96 1009.4 17.4 S 17.4 3.0 2.3
07:26 9.5 8.9 96 1009.3 17.4 NW 17.4 3.0 2.4
07:27 9.5 8.9 96 1009.1 16.8 S 17.4 3.0 2.5
07:28 9.5 8.9 96 1009.2 13.0 S 17.4 2.3 2.5
07:29 9.5 8.9 96 1009.3 13.0 W 17.4 2.3 2.5
07:31 9.6 9.0 96 1009.3 16.8 WSW 17.4 1.5 2.5
07:32 9.6 9.0 96 1009.1 15.9 SW 17.4 1.5 2.6
07:33 9.6 9.0 96 1009.4 15.9 S 17.4 1.5 2.6
07:34 9.7 9.1 96 1009.4 17.4 SW 18.3 2.3 2.6
07:36 9.7 9.1 96 1009.3 16.8 SW 18.3 2.3 2.7
07:37 9.7 9.1 96 1009.1 16.8 SW 18.3 2.3 2.7
07:38 9.7 9.1 96 1009.2 13.0 SW 18.3 1.5 2.8
07:39 9.8 9.2 96 1009.1 19.0 S 19.0 1.5 2.8
07:41 9.8 9.2 96 1009.3 19.0 SW 19.0 1.5 2.8
07:42 9.8 9.3 97 1009.2 15.2 SW 19.0 2.3 2.9
07:43 9.8 9.3 97 1008.9 19.0 S 19.0 2.3 2.9
07:44 9.8 9.3 97 1009.0 19.0 S 19.0 1.5 2.9
07:45 9.8 9.3 97 1008.8 17.4 SSW 19.0 1.5 3.0
07:46 9.9 9.4 97 1008.8 12.1 S 19.0 2.3 3.0
07:47 9.9 9.4 97 1008.9 13.0 S 19.0 1.5 3.0
07:48 9.9 9.4 97 1008.8 12.1 SW 19.0 1.5 3.1
07:49 9.9 9.4 97 1008.8 13.6 SW 19.0 2.3 3.1
07:50 9.9 9.4 97 1008.5 12.1 SW 19.0 2.3 3.1
07:51 9.9 9.4 97 1008.9 13.0 SSW 19.0 0.8 3.1
07:52 9.9 9.4 97 1008.6 13.0 SW 19.0 1.5 3.1
07:53 9.9 9.4 97 1008.5 19.0 SW 19.0 1.5 3.1
07:54 9.9 9.4 97 1008.8 15.9 S 19.0 0.8 3.1
07:55 10.0 9.5 97 1008.6 13.6 S 19.0 0.8 3.1
07:56 10.0 9.5 97 1008.6 13.6 S 19.0 0.8 3.1
07:58 10.0 9.5 97 1008.7 17.4 S 19.0 0.8 3.2
07:59 10.0 9.5 97 1008.8 17.4 S 19.0 0.8 3.2
08:00 10.1 9.6 97 1008.9 17.4 WSW 19.0 0.8 3.2
08:01 10.1 9.6 97 1008.9 17.4 SW 19.0 0.8 3.3
08:02 10.1 9.6 97 1008.7 17.4 SW 19.0 1.5 3.3
08:03 10.1 9.6 97 1008.7 17.4 SW 19.0 0.8 3.3
08:04 10.1 9.6 97 1008.7 17.4 SW 17.4 0.8 3.3
08:06 10.2 9.7 97 1008.8 15.2 SW 17.4 1.5 3.3
08:07 10.2 9.7 97 1008.9 10.7 SW 17.4 0.8 3.3
08:08 10.2 9.7 97 1008.9 12.1 W 17.4 0.8 3.3
08:09 10.2 9.7 97 1008.9 14.5 SW 17.4 0.8 3.4
08:10 10.2 9.7 97 1009.2 11.4 SW 17.4 1.5 3.4
08:11 10.2 9.9 98 1008.8 13.6 SW 17.4 0.8 3.4
08:12 10.2 9.9 98 1009.1 13.0 S 17.4 0.8 3.4
08:13 10.2 9.9 98 1008.9 13.6 SE 17.4 0.8 3.4
08:14 10.3 10.0 98 1008.9 9.2 NW 17.4 0.8 3.4
08:15 10.3 10.0 98 1008.9 9.8 S 15.2 0.0 3.4
08:16 10.3 10.0 98 1008.9 13.0 SW 15.2 0.0 3.5
08:17 10.3 10.0 98 1008.9 13.0 NW 14.5 0.8 3.5
08:18 10.3 10.0 98 1009.0 9.8 NW 14.5 0.8 3.5
08:19 10.3 10.0 98 1008.8 11.4 WSW 13.6 0.8 3.5
08:20 10.3 10.0 98 1009.1 11.4 WNW 13.6 0.8 3.5
08:21 10.3 10.0 98 1008.9 9.8 SW 13.6 0.8 3.5
08:22 10.3 10.0 98 1008.8 8.3 SW 13.6 0.0 3.5
08:23 10.3 10.0 98 1008.8 9.8 W 13.0 0.0 3.5
08:25 10.2 9.9 98 1008.8 13.0 NW 13.0 0.0 3.5
08:26 10.2 9.9 98 1008.9 11.4 NW 13.0 0.0 3.5
08:28 10.2 9.9 98 1008.8 11.4 NW 13.0 0.0 3.5
08:29 10.2 9.9 98 1008.7 13.0 NW 13.0 0.0 3.5
08:30 10.2 9.9 98 1009.1 9.8 NE 13.0 0.0 3.5
08:31 10.1 9.8 98 1009.0 12.1 W 13.0 0.0 3.5
08:32 10.1 9.8 98 1009.0 11.4 WNW 13.0 0.0 3.5
08:34 10.1 9.8 98 1008.9 8.3 W 13.0 0.0 3.5
08:35 10.1 9.8 98 1008.9 10.7 N 13.0 0.0 3.5
08:36 10.1 9.8 98 1008.9 10.7 W 13.0 0.0 3.5
08:38 10.1 9.8 98 1009.1 13.6 WNW 13.6 0.0 3.5
08:39 10.1 9.8 98 1009.0 9.2 W 13.6 0.0 3.5
08:40 10.1 9.8 98 1008.9 9.8 NW 13.6 0.0 3.5
08:41 10.1 9.8 98 1009.0 8.3 NW 13.6 0.0 3.5
08:42 10.1 9.8 98 1008.9 10.7 WNW 13.6 0.0 3.5
08:43 10.1 9.8 98 1008.9 10.7 WNW 13.6 0.0 3.5
08:44 10.1 9.8 98 1008.9 6.9 WNW 13.6 0.0 3.5
08:45 10.0 9.7 98 1008.7 10.7 NW 13.6 0.0 3.5
08:46 10.0 9.7 98 1008.8 6.9 NW 13.6 0.0 3.5
08:47 10.0 9.7 98 1008.9 6.0 W 13.6 0.0 3.5
08:48 9.9 9.6 98 1008.8 8.3 WNW 13.6 0.0 3.5
08:49 9.9 9.4 97 1008.8 10.7 NW 10.7 0.0 3.5
08:51 9.8 9.3 97 1008.8 6.0 SW 10.7 0.0 3.5
08:52 9.8 9.3 97 1008.7 6.0 W 10.7 0.0 3.5
08:53 9.8 9.3 97 1008.8 9.8 NW 10.7 0.0 3.5
08:54 9.8 9.3 97 1008.9 9.8 NW 10.7 0.0 3.5
08:55 9.7 9.2 97 1008.8 10.7 N 10.7 0.0 3.5
08:56 9.7 9.2 97 1008.8 6.0 NW 10.7 0.0 3.5
08:57 9.7 9.2 97 1008.8 9.8 WNW 10.7 0.0 3.5
08:58 9.7 9.2 97 1008.8 9.8 NW 10.7 0.0 3.5
08:59 9.7 9.2 97 1008.9 9.2 W 10.7 0.0 3.5
09:00 9.6 9.1 97 1008.7 13.0 SW 13.0 0.0 3.5
09:01 9.6 9.1 97 1008.9 13.0 SW 13.0 0.0 3.5
09:02 9.6 9.1 97 1008.8 13.0 SW 13.0 0.0 3.5
09:03 9.6 9.1 97 1008.9 13.0 SW 13.0 0.0 3.5
09:05 9.6 9.1 97 1008.7 13.0 SW 13.0 0.0 3.5
09:06 9.6 9.1 97 1008.9 8.3 N 13.0 0.0 3.5
09:07 9.6 9.1 97 1008.9 9.8 WNW 13.0 0.0 3.5
09:08 9.6 9.1 97 1008.9 6.9 WNW 13.0 0.0 3.5
09:09 9.6 9.1 97 1008.8 6.9 WNW 13.0 0.0 3.5
09:10 9.6 9.1 97 1009.0 8.3 NW 13.0 0.0 3.5
09:11 9.6 9.1 97 1008.8 6.0 WNW 13.0 0.0 3.5
09:12 9.6 9.1 97 1008.9 8.3 N 13.0 0.0 3.5
09:13 9.6 9.1 97 1009.1 9.2 NW 13.0 0.0 3.5
09:14 9.6 9.1 97 1009.1 9.8 W 13.0 0.0 3.5
09:15 9.6 9.1 97 1009.3 12.1 NE 13.0 0.0 3.5
09:16 9.6 9.1 97 1009.2 9.8 WNW 12.1 0.0 3.5
09:17 9.6 9.1 97 1009.1 10.7 WNW 12.1 0.0 3.5
09:18 9.6 9.1 97 1009.1 13.6 NW 13.6 0.0 3.5
09:20 9.6 9.1 97 1009.1 11.4 N 13.6 0.0 3.5
09:21 9.6 9.1 97 1009.0 14.5 W 14.5 0.0 3.5
09:22 9.6 9.1 97 1009.0 12.1 NW 14.5 0.0 3.5
09:23 9.6 9.1 97 1009.0 12.1 NW 14.5 0.0 3.5
09:24 9.6 9.1 97 1009.1 14.5 NW 15.9 0.0 3.5
09:25 9.6 9.1 97 1008.7 9.8 WNW 15.9 0.0 3.5
09:26 9.7 9.2 97 1009.0 6.9 NW 15.9 0.0 3.5
09:27 9.7 9.2 97 1009.0 11.4 NE 15.9 0.0 3.5
09:28 9.7 9.2 97 1008.9 13.6 NW 15.9 0.0 3.5
09:29 9.7 9.2 97 1009.0 17.4 NW 17.4 0.0 3.5
09:30 9.7 9.2 97 1009.0 17.4 NW 17.4 0.0 3.5
09:31 9.7 9.2 97 1008.9 14.5 NW 17.4 0.0 3.5
09:32 9.8 9.3 97 1008.9 12.1 WNW 17.4 0.0 3.5
09:33 9.8 9.3 97 1008.8 16.8 W 17.4 0.0 3.5
09:35 9.8 9.3 97 1009.1 12.1 NW 18.3 0.0 3.5
09:36 9.8 9.3 97 1009.0 11.4 NW 18.3 0.0 3.5
09:37 9.8 9.3 97 1009.0 9.8 NW 18.3 0.0 3.5
09:38 9.9 9.4 97 1009.1 15.9 NW 18.3 0.0 3.5
09:39 9.9 9.4 97 1009.3 15.9 NW 18.3 0.0 3.5
09:40 9.9 9.4 97 1009.2 10.7 NW 18.3 0.0 3.5
09:41 9.9 9.4 97 1009.2 12.1 NW 18.3 0.0 3.5
09:42 9.9 9.4 97 1009.2 12.1 NW 18.3 0.0 3.5
09:43 10.0 9.5 97 1009.0 10.7 NW 18.3 0.0 3.5
09:44 10.0 9.5 97 1009.0 12.1 WNW 18.3 0.0 3.5
09:45 10.0 9.5 97 1009.0 18.3 W 18.3 0.0 3.5
09:46 10.0 9.5 97 1009.1 13.6 NW 18.3 0.0 3.5
09:47 10.0 9.5 97 1009.0 19.7 NW 19.7 0.0 3.5
09:49 10.1 9.6 97 1008.9 15.2 WNW 19.7 0.0 3.5
09:50 10.1 9.6 97 1009.2 13.6 W 19.7 0.0 3.5
09:51 10.1 9.6 97 1009.1 14.5 WNW 19.7 0.0 3.5
09:52 10.1 9.6 97 1009.1 11.4 WSW 19.7 0.0 3.5
09:53 10.1 9.6 97 1009.1 13.6 NW 19.7 0.0 3.5
09:54 10.1 9.6 97 1009.2 17.4 SW 19.7 0.0 3.5
09:55 10.1 9.6 97 1009.3 18.3 NW 19.7 0.0 3.5
09:56 10.2 9.7 97 1009.2 11.4 NW 19.7 0.0 3.5
09:57 10.2 9.7 97 1009.1 12.1 WNW 19.7 0.0 3.5
09:58 10.2 9.7 97 1009.1 12.1 NW 19.7 0.0 3.5
09:59 10.2 9.7 97 1009.5 18.3 SW 18.3 0.0 3.5
10:00 10.3 9.8 97 1009.1 19.7 WNW 19.7 0.0 3.5
10:01 10.3 9.8 97 1009.5 19.7 NW 19.7 0.0 3.5
10:02 10.4 9.9 97 1009.3 14.5 NW 19.7 0.0 3.5
10:04 10.4 9.9 97 1009.4 14.5 NW 19.7 0.0 3.5
10:05 10.5 10.0 97 1009.4 15.9 NW 19.7 0.0 3.5
10:06 10.5 10.0 97 1009.4 11.4 NW 19.7 0.0 3.5
10:07 10.5 10.0 97 1009.4 11.4 NW 19.7 0.0 3.5
10:08 10.5 10.0 97 1009.6 15.9 NW 19.7 0.0 3.5
10:09 10.5 10.0 97 1009.4 14.5 NW 19.7 0.0 3.5
10:10 10.5 10.0 97 1009.5 14.5 SW 19.7 0.0 3.5
10:11 10.5 10.0 97 1009.5 20.6 NW 20.6 0.0 3.5
10:12 10.6 10.1 97 1009.8 20.6 W 20.6 0.0 3.5
10:13 10.6 10.1 97 1009.6 20.6 W 20.6 0.0 3.5
10:14 10.6 10.1 97 1009.5 15.9 W 20.6 0.0 3.5
10:15 10.6 10.0 96 1009.6 17.4 NW 20.6 0.0 3.5
10:16 10.6 10.0 96 1009.6 17.4 NW 20.6 0.0 3.5
10:17 10.6 10.0 96 1009.8 10.7 W 20.6 0.0 3.5
10:19 10.6 10.0 96 1009.6 13.6 W 20.6 0.0 3.5
10:20 10.6 10.0 96 1009.6 17.4 WNW 20.6 0.0 3.5
10:21 10.6 10.0 96 1009.8 19.0 NW 20.6 0.0 3.5
10:22 10.6 10.0 96 1009.8 14.5 NW 20.6 0.0 3.5
10:23 10.6 10.0 96 1009.8 14.5 NW 20.6 0.0 3.5
10:24 10.6 10.0 96 1009.7 15.9 SW 19.0 0.0 3.5
10:25 10.6 9.8 95 1009.7 13.6 W 19.0 0.0 3.5
10:26 10.6 9.8 95 1009.7 13.6 W 19.0 0.0 3.5
10:27 10.6 9.8 95 1009.9 18.3 W 19.0 0.0 3.5
10:28 10.6 9.8 95 1009.9 11.4 SW 19.7 0.0 3.5
10:29 10.6 9.8 95 1009.9 10.7 NW 19.7 0.0 3.5
10:30 10.6 9.8 95 1009.8 8.3 W 19.7 0.0 3.5
10:31 10.6 9.8 95 1010.0 7.6 NW 19.7 0.0 3.5
10:33 10.6 9.7 94 1010.0 11.4 NW 19.7 0.0 3.5
10:34 10.6 9.7 94 1010.0 15.9 SW 19.7 0.0 3.5
10:35 10.6 9.7 94 1010.2 11.4 SW 19.7 0.0 3.5
10:36 10.5 9.6 94 1010.0 15.9 SW 19.7 0.0 3.5
10:37 10.5 9.6 94 1010.0 11.4 SW 19.7 0.0 3.5
10:38 10.5 9.6 94 1010.0 11.4 NW 15.9 0.0 3.5
10:39 10.5 9.6 94 1010.0 9.2 NW 15.9 0.0 3.5
10:40 10.5 9.6 94 1009.9 7.6 W 15.9 0.0 3.5
10:41 10.5 9.6 94 1009.9 13.6 NE 15.9 0.0 3.5
10:42 10.5 9.6 94 1009.8 13.6 W 15.9 0.0 3.5
10:43 10.5 9.4 93 1010.0 13.6 W 15.9 0.0 3.5
10:44 10.5 9.4 93 1009.8 14.5 SW 15.9 0.0 3.5
10:45 10.5 9.4 93 1009.8 13.6 NW 15.9 0.0 3.5
10:46 10.5 9.4 93 1009.8 13.0 W 15.9 0.0 3.5
10:48 10.5 9.4 93 1009.9 13.6 NW 17.4 0.0 3.5
10:49 10.5 9.4 93 1009.8 11.4 SW 17.4 0.0 3.5
10:50 10.5 9.4 93 1009.6 8.3 W 17.4 0.0 3.5
10:51 10.5 9.4 93 1009.6 8.3 W 17.4 0.0 3.5
10:52 10.5 9.4 93 1009.7 12.1 N 17.4 0.0 3.5
10:53 10.6 9.5 93 1009.6 9.2 W 17.4 0.0 3.5
10:54 10.5 9.4 93 1009.8 6.9 SW 17.4 0.0 3.5
10:55 10.6 9.4 92 1009.8 11.4 SW 17.4 0.0 3.5
10:56 10.6 9.4 92 1009.5 9.8 W 17.4 0.0 3.5
10:57 10.5 9.3 92 1009.9 15.9 W 17.4 0.0 3.5
10:58 10.5 9.3 92 1009.6 13.0 W 15.9 0.0 3.5
10:59 10.6 9.4 92 1009.7 12.1 NW 15.9 0.0 3.5
11:00 10.6 9.4 92 1010.0 12.1 NW 15.9 0.0 3.5
11:02 10.6 9.4 92 1009.7 12.1 NW 15.9 0.0 3.5
11:03 10.6 9.4 92 1009.8 12.1 NW 15.9 0.0 3.5
11:04 10.6 9.4 92 1009.7 12.1 NW 15.9 0.0 3.5
11:05 10.6 9.4 92 1009.7 16.8 NW 16.8 0.0 3.5
11:06 10.6 9.4 92 1009.8 17.4 W 17.4 0.0 3.5
11:07 10.6 9.4 92 1009.9 11.4 NW 17.4 0.0 3.5
11:08 10.6 9.4 92 1009.9 15.2 W 17.4 0.0 3.5
11:09 10.6 9.4 92 1009.9 18.3 W 18.3 0.0 3.5
11:10 10.6 9.4 92 1009.8 18.3 W 18.3 0.0 3.5
11:11 10.6 9.4 92 1009.8 17.4 NW 18.3 0.0 3.5
11:12 10.7 9.5 92 1009.8 10.7 W 18.3 0.0 3.5
11:13 10.7 9.5 92 1009.8 10.7 NNW 18.3 0.0 3.5
11:14 10.8 9.6 92 1009.9 10.7 W 18.3 0.0 3.5
11:15 10.9 9.7 92 1009.8 10.7 W 18.3 0.0 3.5
11:16 10.9 9.7 92 1009.7 19.0 SW 19.0 0.0 3.5
11:17 10.9 9.7 92 1009.9 19.0 W 19.0 0.0 3.5
11:19 11.0 9.8 92 1009.8 13.0 W 19.0 0.0 3.5
11:20 11.0 9.6 91 1009.8 14.5 W 19.0 0.0 3.5
11:21 11.0 9.6 91 1009.7 13.6 N 19.0 0.0 3.5
11:22 11.0 9.6 91 1009.8 14.5 SW 19.0 0.0 3.5
11:23 11.0 9.6 91 1009.6 19.7 SW 19.7 0.0 3.5
11:24 11.0 9.6 91 1009.7 13.6 W 19.7 0.0 3.5
11:25 11.0 9.6 91 1009.7 13.6 W 19.7 0.0 3.5
11:26 11.0 9.6 91 1009.5 13.6 W 19.7 0.0 3.5
11:27 11.0 9.4 90 1009.6 13.6 W 19.7 0.0 3.5
11:28 11.1 9.5 90 1009.8 9.2 N 19.7 0.0 3.5
11:29 11.1 9.5 90 1009.8 13.6 W 19.7 0.0 3.5
11:30 11.1 9.4 89 1009.9 16.8 W 19.7 0.0 3.5
11:31 11.1 9.4 89 1009.9 19.0 NW 19.7 0.0 3.5
11:32 11.1 9.2 88 1009.7 19.7 NW 19.7 0.0 3.5
11:34 11.0 8.8 86 1009.8 22.1 N 22.1 0.0 3.5
11:35 11.0 8.6 85 1009.8 15.2 W 22.1 0.0 3.5
11:36 11.0 8.6 85 1009.9 12.1 W 22.1 0.0 3.5
11:37 11.0 8.4 84 1009.7 12.1 SW 22.1 0.0 3.5
11:38 11.0 8.2 83 1010.0 13.0 NW 22.1 0.0 3.5
11:39 11.1 8.3 83 1009.9 15.9 N 22.1 0.0 3.5
11:40 11.1 8.1 82 1009.8 13.6 NW 22.1 0.0 3.5
11:41 11.1 8.1 82 1009.9 13.0 NE 22.1 0.0 3.5
11:42 11.1 8.1 82 1009.9 10.7 W 22.1 0.0 3.5
11:43 11.1 8.1 82 1009.6 11.4 W 22.1 0.0 3.5
11:44 11.1 8.0 81 1009.9 18.3 W 22.1 0.0 3.5
11:45 11.0 7.9 81 1009.9 14.5 W 18.3 0.0 3.5
11:46 11.0 7.9 81 1009.8 16.8 W 18.3 0.0 3.5
11:47 11.0 7.9 81 1010.0 19.0 W 19.0 0.0 3.5
11:48 10.9 7.8 81 1009.9 17.4 NW 19.0 0.0 3.5
11:49 10.9 7.8 81 1009.9 19.7 W 19.7 0.0 3.5
11:51 10.8 7.7 81 1010.0 15.2 SW 19.7 0.0 3.5
11:52 10.7 7.4 80 1010.1 12.1 W 19.7 0.0 3.5
11:53 10.7 7.4 80 1009.8 14.5 W 19.7 0.0 3.5
11:54 10.6 7.3 80 1010.1 13.6 NW 19.7 0.0 3.5
11:55 10.6 7.3 80 1009.7 12.1 NW 19.7 0.0 3.5
11:56 10.5 7.2 80 1009.8 12.1 N 19.7 0.0 3.5
11:57 10.4 7.1 80 1010.0 13.6 W 19.7 0.0 3.5
11:58 10.4 7.1 80 1009.7 15.2 W 19.7 0.0 3.5
11:59 10.4 7.1 80 1010.0 19.7 SSW 19.7 0.0 3.5
12:00 10.4 7.1 80 1009.7 17.4 SW 19.7 0.0 3.5
12:01 10.4 7.1 80 1010.0 17.4 SW 19.7 0.0 3.5
12:02 10.4 7.1 80 1009.9 17.4 SW 19.7 0.0 3.5
12:03 10.4 7.1 80 1009.9 17.4 SW 19.7 0.0 3.5
12:04 10.4 7.1 80 1009.7 17.4 SW 19.7 0.0 3.5
12:06 10.7 7.6 81 1009.9 16.8 SW 19.7 0.0 3.5
12:07 10.8 7.7 81 1009.7 11.4 NW 19.7 0.0 3.5
12:08 10.8 7.7 81 1009.8 19.7 NW 19.7 0.0 3.5
12:09 10.8 7.7 81 1009.9 18.3 W 19.7 0.0 3.5
12:10 10.9 7.8 81 1009.4 11.4 W 19.7 0.0 3.5
12:11 10.9 7.8 81 1009.7 9.2 W 19.7 0.0 3.5
12:12 10.9 7.6 80 1009.6 16.8 W 19.7 0.0 3.5
12:13 11.0 7.7 80 1009.8 15.2 S 19.7 0.0 3.5
12:14 11.0 7.7 80 1009.4 13.0 W 19.7 0.0 3.5
12:15 11.0 7.7 80 1009.5 16.8 W 19.7 0.0 3.5
12:16 11.0 7.7 80 1009.5 12.1 SW 19.7 0.0 3.5
12:17 11.0 7.7 80 1009.6 22.8 NW 22.8 0.0 3.5
12:18 11.1 7.6 79 1009.5 15.9 W 22.8 0.0 3.5
12:19 11.1 7.6 79 1009.3 18.3 W 22.8 0.0 3.5
12:21 11.1 7.6 79 1009.7 17.4 NW 22.8 0.0 3.5
12:22 11.1 7.6 79 1009.4 15.9 W 22.8 0.0 3.5
12:23 11.1 7.6 79 1009.6 13.6 W 22.8 0.0 3.5
12:24 11.0 7.5 79 1009.7 12.1 NW 22.8 0.0 3.5
12:25 11.0 7.5 79 1009.7 13.6 W 22.8 0.0 3.5
12:26 11.0 7.5 79 1009.5 23.5 W 23.5 0.0 3.5
12:27 11.0 7.5 79 1009.7 15.9 W 23.5 0.0 3.5
12:28 11.0 7.5 79 1009.7 15.9 W 23.5 0.0 3.5
12:29 11.0 7.5 79 1009.6 16.8 W 23.5 0.0 3.5
12:30 10.9 7.4 79 1009.5 16.8 W 23.5 0.0 3.5
12:31 10.9 7.4 79 1009.6 18.3 W 23.5 0.0 3.5
12:32 10.9 7.2 78 1009.6 18.3 W 23.5 0.0 3.5
12:33 10.9 7.2 78 1009.5 20.6 W 23.5 0.0 3.5
12:35 11.0 7.1 77 1009.6 15.9 W 23.5 0.0 3.5
12:36 11.0 7.1 77 1009.6 16.8 NW 20.6 0.0 3.5
12:37 11.0 7.1 77 1009.5 9.8 W 20.6 0.0 3.5
12:38 11.0 7.1 77 1009.6 16.8 W 20.6 0.0 3.5
12:39 11.0 7.1 77 1009.9 17.4 NW 20.6 0.0 3.5
12:40 11.0 7.1 77 1009.9 19.0 W 20.6 0.0 3.5
12:41 11.0 6.9 76 1009.8 13.0 W 20.6 0.0 3.5
12:42 11.0 6.9 76 1009.9 13.6 W 20.6 0.0 3.5
12:43 11.1 7.0 76 1010.1 15.9 SW 20.6 0.0 3.5
12:44 11.2 7.3 77 1009.9 14.5 W 19.0 0.0 3.5
12:45 11.2 7.3 77 1009.9 17.4 W 19.0 0.0 3.5
12:46 11.2 7.1 76 1010.0 15.2 SW 24.4 0.0 3.5
12:47 11.2 7.1 76 1010.2 16.8 W 24.4 0.0 3.5
12:49 11.2 6.9 75 1009.8 25.1 N 25.1 0.0 3.5
12:50 11.1 6.6 74 1010.0 19.7 SW 25.1 0.0 3.5
12:51 11.0 6.5 74 1010.3 19.7 W 25.1 0.0 3.5
12:52 10.9 6.5 74 1010.0 15.9 W 25.1 0.0 3.5
12:53 10.9 6.5 74 1010.0 15.9 W 25.1 0.0 3.5
12:54 10.8 6.4 74 1009.9 10.7 SW 25.1 0.0 3.5
12:55 10.8 6.4 74 1010.0 15.9 SW 25.1 0.0 3.5
12:56 10.8 6.4 74 1009.8 23.5 W 25.1 0.0 3.5
12:57 10.8 6.4 74 1009.8 17.4 W 25.1 0.0 3.5
12:58 10.9 6.5 74 1009.9 15.9 W 25.1 0.0 3.5
12:59 10.9 6.5 74 1009.9 15.9 NW 25.1 0.0 3.5
13:00 10.9 6.6 75 1010.2 19.7 SW 23.5 0.0 3.5
13:01 10.9 6.6 75 1010.2 19.7 SW 23.5 0.0 3.5
13:02 11.0 6.7 75 1009.9 18.3 NW 23.5 0.0 3.5
13:03 11.0 6.7 75 1009.8 15.9 W 23.5 0.0 3.5
13:04 11.0 6.9 76 1009.9 13.6 SW 23.5 0.0 3.5
13:06 11.0 6.7 75 1010.0 11.4 W 23.5 0.0 3.5
13:07 11.0 6.7 75 1010.0 14.5 NW 21.3 0.0 3.5
13:08 11.0 6.7 75 1010.1 15.2 NW 21.3 0.0 3.5
13:09 10.9 6.5 74 1009.9 22.1 W 22.1 0.0 3.5
13:10 10.9 6.5 74 1010.1 16.8 W 22.1 0.0 3.5
13:11 10.9 6.5 74 1009.9 16.8 W 22.1 0.0 3.5
13:12 10.8 6.4 74 1010.2 12.1 WNW 22.1 0.0 3.5
13:13 10.7 6.3 74 1010.2 13.6 W 22.1 0.0 3.5
13:14 10.7 6.5 75 1009.9 13.6 W 22.1 0.0 3.5
13:15 10.7 6.5 75 1010.1 9.2 NW 22.1 0.0 3.5
13:16 10.7 6.6 76 1009.9 15.2 W 22.1 0.0 3.5
13:17 10.7 6.6 76 1010.1 13.0 W 22.1 0.0 3.5
13:18 10.7 6.8 77 1010.1 20.6 W 22.1 0.0 3.5
13:19 10.7 6.6 76 1010.3 20.6 N 22.1 0.0 3.5
13:20 10.6 6.5 76 1010.1 16.8 W 20.6 0.0 3.5
13:22 10.5 6.3 75 1010.2 15.9 W 20.6 0.0 3.5
13:23 10.5 6.3 75 1010.3 18.3 W 20.6 0.0 3.5
13:24 10.4 6.0 74 1010.2 13.0 W 20.6 0.0 3.5
13:25 10.4 6.0 74 1010.2 13.0 W 20.6 0.0 3.5
13:26 10.3 5.9 74 1010.5 12.1 NW 20.6 0.0 3.5
13:27 10.3 5.9 74 1010.3 16.8 SW 20.6 0.0 3.5
13:28 10.2 5.8 74 1010.2 14.5 W 20.6 0.0 3.5
13:29 10.2 5.8 74 1010.4 14.5 NW 20.6 0.0 3.5
13:30 10.2 6.0 75 1010.2 13.0 W 18.3 0.0 3.5
13:31 10.1 5.9 75 1010.2 15.2 W 18.3 0.0 3.5
13:32 10.1 5.9 75 1010.2 16.8 WNW 18.3 0.0 3.5
13:33 10.1 5.9 75 1010.4 9.8 N 18.3 0.0 3.5
13:34 10.2 6.2 76 1010.1 16.8 NE 16.8 0.0 3.5
13:35 10.2 6.4 77 1010.3 18.3 N 18.3 0.0 3.5
13:36 10.2 6.4 77 1010.3 15.9 N 18.3 0.0 3.5
13:38 10.2 6.4 77 1010.3 18.3 W 18.3 0.0 3.5
13:39 10.2 6.4 77 1010.1 18.3 NW 18.3 0.0 3.5
13:40 10.2 6.4 77 1010.2 18.3 NW 18.3 0.0 3.5
13:41 10.2 6.4 77 1010.0 25.1 W 25.1 0.0 3.5
13:42 10.1 6.1 76 1010.1 25.1 W 25.1 0.0 3.5
13:43 10.1 6.1 76 1010.2 19.0 W 25.1 0.0 3.5
13:44 10.1 5.9 75 1010.2 15.2 SW 25.1 0.0 3.5
13:45 10.1 5.9 75 1010.2 15.2 SW 25.1 0.0 3.5
13:46 10.0 5.8 75 1010.3 14.5 W 25.1 0.0 3.5
13:47 10.0 5.8 75 1010.4 14.5 W 25.1 0.0 3.5
13:48 9.9 5.7 75 1010.3 15.2 W 25.1 0.0 3.5
13:49 9.9 5.7 75 1010.3 11.4 W 25.1 0.0 3.5
13:50 9.9 5.7 75 1010.4 13.0 SW 25.1 0.0 3.5
13:52 9.8 5.8 76 1010.4 11.4 SW 19.0 0.0 3.5
13:53 9.8 5.8 76 1010.4 9.8 N 18.3 0.0 3.5
13:54 9.8 5.8 76 1010.4 9.8 W 17.4 0.0 3.5
13:55 9.8 5.8 76 1010.4 9.8 W 17.4 0.0 3.5
13:56 9.8 5.8 76 1010.4 15.2 W 17.4 0.0 3.5
13:57 9.8 5.8 76 1010.1 19.0 NW 19.0 0.0 3.5
13:58 9.8 5.8 76 1010.2 15.9 NW 19.0 0.0 3.5
13:59 9.8 5.8 76 1010.3 15.2 NW 19.0 0.0 3.5
14:00 9.8 5.8 76 1010.2 15.2 WNW 19.0 0.0 3.5
14:01 9.8 5.8 76 1010.2 15.2 WNW 19.0 0.0 3.5
14:02 9.8 5.8 76 1010.2 15.2 WNW 19.0 0.0 3.5
14:03 9.7 5.7 76 1010.2 13.0 SW 19.0 0.0 3.5
14:04 9.7 5.5 75 1010.2 12.1 W 19.0 0.0 3.5
14:05 9.7 5.5 75 1010.2 13.6 W 19.0 0.0 3.5
14:07 9.7 5.7 76 1010.0 12.1 W 15.9 0.0 3.5
14:08 9.7 5.7 76 1010.2 15.9 W 15.9 0.0 3.5
14:09 9.7 5.7 76 1010.0 15.9 NW 15.9 0.0 3.5
14:10 9.7 5.7 76 1010.1 13.6 W 15.9 0.0 3.5
14:11 9.6 5.6 76 1010.0 12.1 W 15.9 0.0 3.5
14:12 9.6 5.6 76 1010.3 13.6 NW 15.9 0.0 3.5
14:13 9.6 5.8 77 1010.3 19.0 W 19.0 0.0 3.5
14:14 9.6 5.8 77 1010.3 16.8 NW 19.0 0.8 3.5
14:15 9.6 5.8 77 1010.5 22.8 NW 22.8 0.8 3.5
14:16 9.5 5.7 77 1010.5 16.8 NW 22.8 0.8 3.5
14:17 9.5 5.7 77 1010.6 16.8 NW 22.8 0.8 3.5
14:18 9.3 5.3 76 1010.6 20.6 NW 23.5 0.8 3.6
14:19 9.2 5.2 76 1010.7 20.6 NW 23.5 0.8 3.6
14:20 9.1 4.9 75 1010.4 16.8 NW 23.5 0.8 3.7
14:22 8.8 4.4 74 1010.5 15.9 N 23.5 1.5 3.7
14:23 8.7 4.3 74 1010.8 16.8 NW 23.5 1.5 3.7
14:24 8.6 4.2 74 1010.7 13.6 W 23.5 0.8 3.7
14:25 8.5 4.3 75 1010.7 15.2 W 23.5 0.8 3.7
14:26 8.4 4.2 75 1010.7 18.3 W 23.5 0.0 3.7
14:27 8.4 4.2 75 1010.7 18.3 SW 23.5 0.8 3.7
14:28 8.2 4.0 75 1010.7 21.3 W 28.2 0.8 3.7
14:29 8.2 4.2 76 1010.7 21.3 SW 28.2 0.8 3.8
14:30 8.1 4.1 76 1010.6 20.6 W 28.2 1.5 3.8
14:31 8.1 4.1 76 1010.5 20.6 W 28.2 1.5 3.8
14:32 8.0 4.2 77 1010.7 19.7 SW 28.2 1.5 3.8
14:33 8.0 4.2 77 1010.5 13.6 NW 28.2 1.5 3.8
14:34 7.9 4.1 77 1010.2 19.7 W 28.2 1.5 3.8
14:35 7.8 4.0 77 1010.4 15.2 W 28.2 0.8 3.8
14:37 7.8 4.2 78 1010.3 16.8 SW 28.2 0.0 3.8
14:38 7.8 4.2 78 1010.4 15.9 SW 21.3 0.0 3.8
14:39 7.7 4.3 79 1010.4 16.8 W 20.6 0.0 3.8
14:40 7.7 4.3 79 1010.6 16.8 SW 20.6 0.0 3.8
14:41 7.7 4.3 79 1010.4 14.5 W 20.6 0.0 3.8
14:42 7.7 4.3 79 1010.5 12.1 SW 19.7 0.0 3.8
14:43 7.7 4.3 79 1010.4 9.8 W 19.7 0.0 3.8
14:44 7.7 4.3 79 1010.3 11.4 W 19.7 0.0 3.8
14:45 7.7 4.3 79 1010.3 15.2 W 19.7 0.0 3.8
14:46 7.7 4.3 79 1010.3 15.2 W 16.8 0.0 3.8
14:47 7.7 4.3 79 1010.3 15.2 W 16.8 0.0 3.8
14:48 7.7 4.3 79 1010.4 15.2 W 16.8 0.0 3.8
14:49 7.7 4.3 79 1010.4 11.4 W 16.8 0.0 3.8
14:50 7.7 4.3 79 1010.4 13.0 W 16.8 0.0 3.8
14:52 7.8 4.4 79 1010.6 11.4 W 15.9 0.0 3.8
14:53 7.8 4.6 80 1010.1 17.4 W 17.4 0.0 3.8
14:54 7.9 4.7 80 1010.5 14.5 NW 25.1 0.0 3.8
14:55 7.9 4.7 80 1010.5 14.5 NW 25.1 0.0 3.8
14:56 8.0 4.8 80 1010.6 16.8 W 25.1 0.0 3.8
14:57 8.0 4.8 80 1010.5 16.8 SW 25.1 0.0 3.8
14:58 8.1 4.9 80 1010.5 18.3 NW 25.1 0.0 3.8
14:59 8.2 5.0 80 1010.4 18.3 W 25.1 0.0 3.8
15:00 8.3 5.1 80 1010.5 18.3 SW 25.1 0.0 3.8
15:01 8.3 5.1 80 1010.5 18.3 SW 25.1 0.0 3.8
15:02 8.3 5.1 80 1010.4 18.3 SW 25.1 0.0 3.8
15:03 8.4 5.2 80 1010.5 17.4 NW 25.1 0.0 3.8
15:04 8.4 5.2 80 1010.7 17.4 SW 18.3 0.0 3.8
15:05 8.4 5.2 80 1010.7 18.3 W 18.3 0.0 3.8
15:07 8.5 5.1 79 1010.5 15.2 SW 18.3 0.0 3.8
15:08 8.5 5.1 79 1010.6 19.7 N 19.7 0.0 3.8
15:09 8.5 5.1 79 1010.5 19.7 WNW 19.7 0.0 3.8
15:10 8.5 5.1 79 1010.4 16.8 NW 19.7 0.0 3.8
15:11 8.5 5.1 79 1010.4 15.2 W 19.7 0.0 3.8
15:12 8.5 5.1 79 1010.2 15.9 W 19.7 0.0 3.8
15:13 8.5 5.1 79 1010.5 22.1 W 22.1 0.0 3.8
15:14 8.5 5.1 79 1010.6 22.1 NW 22.1 0.0 3.8
15:15 8.5 5.1 79 1010.5 19.7 W 22.1 0.0 3.8
15:16 8.5 5.1 79 1010.4 13.6 W 22.1 0.0 3.8
15:17 8.5 5.1 79 1010.7 13.6 W 22.1 0.0 3.8
15:18 8.5 5.1 79 1010.5 13.0 W 22.1 0.0 3.8
15:19 8.5 5.1 79 1010.5 15.9 W 22.1 0.0 3.8
15:20 8.5 5.1 79 1010.7 17.4 W 22.1 0.0 3.8
15:21 8.5 5.1 79 1010.5 14.5 NW 22.1 0.0 3.8
15:22 8.5 5.1 79 1010.7 12.1 W 22.1 0.0 3.8
15:23 8.5 5.1 79 1010.7 9.8 NW 22.1 0.0 3.8
15:24 8.5 5.1 79 1010.5 9.8 NE 19.7 0.0 3.8
15:26 8.5 5.1 79 1010.7 17.4 N 17.4 0.0 3.8
15:27 8.5 5.1 79 1010.6 16.8 SW 17.4 0.0 3.8
15:28 8.5 5.1 79 1010.7 16.8 SW 17.4 0.0 3.8
15:29 8.5 5.1 79 1010.7 13.6 WNW 17.4 0.0 3.8
15:30 8.5 5.1 79 1010.4 15.9 SW 17.4 0.0 3.8
15:31 8.4 5.0 79 1010.6 11.4 W 17.4 0.0 3.8
15:32 8.4 5.0 79 1010.6 13.0 SW 17.4 0.0 3.8
15:33 8.4 5.0 79 1010.7 19.7 SW 19.7 0.0 3.8
15:34 8.4 5.0 79 1010.6 14.5 W 19.7 0.0 3.8
15:35 8.4 5.0 79 1010.6 12.1 W 19.7 0.0 3.8
15:36 8.4 5.0 79 1010.5 14.5 NW 19.7 0.0 3.8
15:37 8.4 5.0 79 1010.5 14.5 W 19.7 0.0 3.8
15:38 8.3 4.9 79 1010.6 12.1 SW 19.7 0.0 3.8
15:39 8.3 4.9 79 1010.4 12.1 W 19.7 0.0 3.8
15:40 8.3 4.9 79 1010.4 14.5 W 19.7 0.0 3.8
15:42 8.3 4.9 79 1010.6 11.4 W 19.7 0.0 3.8
15:43 8.3 4.9 79 1010.7 12.1 W 19.7 0.0 3.8
15:44 8.3 4.9 79 1010.7 13.0 NW 15.9 0.0 3.8
15:45 8.3 4.9 79 1010.7 10.7 SW 15.9 0.0 3.8
15:46 8.3 4.9 79 1010.8 15.9 W 15.9 0.0 3.8
15:47 8.2 4.8 79 1010.7 15.2 SW 15.9 0.0 3.8
15:48 8.2 4.6 78 1010.7 15.9 W 15.9 0.0 3.8
15:49 8.2 4.6 78 1010.8 10.7 W 15.9 0.0 3.8
15:50 8.2 4.4 77 1010.6 9.8 WNW 15.9 0.0 3.8
15:51 8.2 4.4 77 1010.7 11.4 W 15.9 0.0 3.8
15:52 8.1 4.1 76 1010.5 13.0 NW 15.9 0.0 3.8
15:53 8.0 4.0 76 1010.7 15.9 W 15.9 0.0 3.8
15:54 8.0 4.0 76 1010.9 15.9 NW 15.9 0.0 3.8
15:55 8.0 3.8 75 1010.9 15.9 W 15.9 0.0 3.8
15:57 7.9 3.7 75 1010.6 15.9 W 15.9 0.0 3.8
15:58 7.8 3.6 75 1010.9 10.7 W 15.9 0.0 3.8
15:59 7.8 3.6 75 1010.8 10.7 W 15.9 0.0 3.8
16:00 7.8 3.6 75 1010.7 10.7 W 15.9 0.0 3.8
16:01 7.8 3.6 75 1010.7 10.7 W 15.9 0.0 3.8
16:02 7.8 3.6 75 1010.8 10.7 W 15.9 0.0 3.8
16:03 7.8 3.6 75 1010.7 10.7 W 15.9 0.0 3.8
16:04 7.8 3.6 75 1010.8 10.7 W 15.9 0.0 3.8
16:05 7.8 3.6 75 1010.8 14.5 W 15.9 0.0 3.8
16:06 7.6 3.5 75 1010.9 11.4 W 15.9 0.0 3.8
16:07 7.6 3.5 75 1010.6 13.6 SW 15.9 0.0 3.8
16:08 7.6 3.5 75 1010.8 12.1 W 14.5 0.0 3.8
16:09 7.6 3.5 75 1010.7 12.1 SW 14.5 0.0 3.8
16:10 7.6 3.5 75 1010.8 10.7 W 14.5 0.0 3.8
16:12 7.5 3.5 76 1010.8 11.4 W 14.5 0.0 3.8
16:13 7.5 3.5 76 1010.7 13.6 W 14.5 0.0 3.8
16:14 7.5 3.5 76 1010.7 11.4 NW 14.5 0.0 3.8
16:15 7.5 3.5 76 1010.7 11.4 NW 14.5 0.0 3.8
16:16 7.5 3.5 76 1010.8 14.5 W 14.5 0.0 3.8
16:17 7.5 3.5 76 1010.9 9.8 SW 14.5 0.0 3.8
16:18 7.5 3.7 77 1010.8 10.7 NW 14.5 0.0 3.8
16:19 7.5 3.7 77 1010.7 10.7 W 14.5 0.0 3.8
16:20 7.5 3.7 77 1010.8 14.5 NW 14.5 0.0 3.8
16:21 7.5 3.7 77 1010.6 14.5 NW 14.5 0.0 3.8
16:22 7.5 3.7 77 1010.8 13.0 W 14.5 0.0 3.8
16:23 7.6 3.8 77 1010.8 15.2 W 15.9 0.0 3.8
16:24 7.6 3.8 77 1011.1 19.7 W 19.7 0.0 3.8
16:25 7.6 3.8 77 1010.9 15.9 W 19.7 0.0 3.8
16:26 7.6 3.8 77 1010.8 12.1 W 19.7 0.0 3.8
16:28 7.7 3.9 77 1010.7 14.5 NW 19.7 0.0 3.8
16:29 7.7 3.9 77 1010.8 12.1 W 19.7 0.0 3.8
16:30 7.7 3.9 77 1010.9 9.2 SW 19.7 0.0 3.8
16:31 7.7 3.9 77 1010.9 9.2 SW 19.7 0.0 3.8
16:32 7.7 3.9 77 1010.9 14.5 W 19.7 0.0 3.8
16:33 7.8 4.0 77 1010.9 16.8 SSW 19.7 0.0 3.8
16:34 7.8 4.0 77 1010.9 13.0 W 19.7 0.0 3.8
16:35 7.8 4.0 77 1011.1 12.1 NW 16.8 0.0 3.8
16:36 7.8 4.0 77 1011.0 15.9 W 16.8 0.0 3.8
16:37 7.8 4.0 77 1011.0 11.4 W 16.8 0.0 3.8
16:38 7.8 4.0 77 1010.9 12.1 W 16.8 0.0 3.8
16:39 7.8 4.0 77 1010.9 15.9 W 16.8 0.0 3.8
16:40 7.8 4.0 77 1011.0 15.9 W 16.8 0.0 3.8
16:41 7.8 4.0 77 1010.8 14.5 SW 16.8 0.0 3.8
16:43 7.9 4.3 78 1011.0 13.6 W 15.9 0.0 3.8
16:44 7.9 4.3 78 1010.9 13.6 W 15.9 0.0 3.8
16:45 7.9 4.3 78 1011.0 13.6 W 15.9 0.0 3.8
16:46 8.0 4.4 78 1011.1 10.7 NW 15.9 0.0 3.8
16:47 8.0 4.4 78 1010.9 10.7 W 15.9 0.0 3.8
16:48 8.0 4.6 79 1010.9 8.3 NW 15.9 0.0 3.8
16:49 8.0 4.6 79 1010.9 8.3 SW 15.9 0.0 3.8
16:50 8.0 4.6 79 1011.1 10.7 WNW 15.9 0.0 3.8
16:51 8.0 4.6 79 1011.3 13.0 W 14.5 0.0 3.8
16:52 8.0 4.6 79 1011.1 12.1 W 15.2 0.0 3.8
16:53 8.1 4.7 79 1010.9 9.8 W 15.2 0.0 3.8
16:54 8.1 4.7 79 1011.1 14.5 W 15.2 0.0 3.8
16:55 8.1 4.7 79 1010.9 11.4 W 15.2 0.0 3.8
16:56 8.1 4.7 79 1011.0 20.6 SW 20.6 0.0 3.8
16:58 8.1 4.7 79 1011.3 12.1 W 20.6 0.0 3.8
16:59 8.1 4.7 79 1011.2 12.1 NW 20.6 0.0 3.8
17:00 8.1 4.7 79 1011.0 12.1 NW 20.6 0.0 3.8
17:01 8.1 4.7 79 1011.3 12.1 NW 20.6 0.0 3.8
17:02 8.1 4.7 79 1011.1 12.1 NW 20.6 0.0 3.8
17:03 8.1 4.7 79 1011.2 12.1 NW 20.6 0.0 3.8
17:04 8.1 4.7 79 1010.9 12.1 NW 20.6 0.0 3.8
17:05 8.1 4.7 79 1011.2 12.1 NW 20.6 0.0 3.8
17:06 8.1 4.7 79 1011.1 12.1 NW 20.6 0.0 3.8
17:07 8.2 4.8 79 1011.1 12.1 WNW 20.6 0.0 3.8
17:08 8.2 4.8 79 1011.1 9.8 W 14.5 0.0 3.8
17:09 8.2 4.8 79 1011.1 11.4 W 12.1 0.0 3.8
17:10 8.2 4.8 79 1010.8 9.8 W 14.5 0.0 3.8
17:11 8.3 4.7 78 1011.0 9.2 NW 14.5 0.0 3.8
17:12 8.3 4.7 78 1011.0 11.4 WNW 14.5 0.0 3.8
17:13 8.3 4.7 78 1011.1 13.6 W 14.5 0.0 3.8
17:14 8.3 4.7 78 1011.1 12.1 NW 14.5 0.0 3.8
17:15 8.3 4.7 78 1011.3 11.4 S 14.5 0.0 3.8
17:16 8.3 4.7 78 1011.3 10.7 W 14.5 0.0 3.8
17:17 8.3 4.7 78 1011.4 13.0 W 14.5 0.0 3.8
17:19 8.3 4.7 78 1011.3 15.2 W 15.9 0.0 3.8
17:20 8.3 4.7 78 1011.1 15.2 W 15.9 0.0 3.8
17:21 8.3 4.7 78 1011.3 15.2 W 15.9 0.0 3.8
17:22 8.3 4.7 78 1011.1 14.5 W 15.9 0.0 3.8
17:23 8.3 4.7 78 1011.2 9.2 W 15.9 0.0 3.8
17:24 8.3 4.7 78 1011.2 10.7 SW 15.9 0.0 3.8
17:25 8.3 4.7 78 1011.3 10.7 SW 15.9 0.0 3.8
17:26 8.3 4.7 78 1010.9 12.1 W 15.9 0.0 3.8
17:27 8.3 4.7 78 1011.2 13.0 SW 15.9 0.0 3.8
17:28 8.2 4.6 78 1011.3 9.2 SW 15.9 0.0 3.8
17:29 8.2 4.6 78 1011.4 13.6 W 15.9 0.0 3.8
17:30 8.2 4.6 78 1011.3 9.2 W 15.2 0.0 3.8
17:31 8.2 4.6 78 1011.3 10.7 W 15.2 0.0 3.8
17:32 8.2 4.6 78 1011.1 13.0 W 13.6 0.0 3.8
17:34 8.2 4.6 78 1011.3 13.6 NW 13.6 0.0 3.8
17:35 8.2 4.6 78 1011.4 13.0 W 13.6 0.0 3.8
17:36 8.1 4.5 78 1011.5 13.0 SW 13.6 0.0 3.8
17:37 8.1 4.5 78 1011.4 10.7 W 13.6 0.0 3.8
17:38 8.1 4.5 78 1011.4 14.5 NW 14.5 0.0 3.8
17:39 8.1 4.5 78 1011.4 14.5 NW 14.5 0.0 3.8
17:40 8.1 4.3 77 1011.5 10.7 W 14.5 0.0 3.8
17:41 8.1 4.3 77 1011.4 14.5 SW 14.5 0.0 3.8
17:42 8.1 4.3 77 1011.4 14.5 W 14.5 0.0 3.8
17:43 8.1 4.1 76 1011.2 9.8 W 14.5 0.0 3.8
17:44 8.1 4.1 76 1011.4 11.4 W 14.5 0.0 3.8
17:45 8.1 4.1 76 1011.5 8.3 SW 14.5 0.0 3.8
17:46 8.1 4.1 76 1011.5 12.1 WNW 14.5 0.0 3.8
17:47 8.1 3.9 75 1011.3 12.1 NW 14.5 0.0 3.8
17:48 8.0 3.8 75 1011.5 12.1 SW 14.5 0.0 3.8
17:50 8.0 3.8 75 1011.7 13.6 W 14.5 0.0 3.8
17:51 8.0 3.8 75 1011.3 9.2 W 14.5 0.0 3.8
17:52 8.0 3.7 74 1011.5 13.6 N 13.6 0.0 3.8
17:53 8.0 3.7 74 1011.4 13.6 N 13.6 0.0 3.8
17:54 8.0 3.7 74 1011.3 9.2 NW 13.6 0.0 3.8
17:55 7.9 3.6 74 1011.3 12.1 W 13.6 0.0 3.8
17:56 7.9 3.6 74 1011.5 11.4 WNW 16.8 0.0 3.8
17:57 7.9 3.6 74 1011.6 9.8 W 16.8 0.0 3.8
17:58 7.9 3.6 74 1011.4 10.7 SW 16.8 0.0 3.8
17:59 7.9 3.6 74 1011.7 10.7 SW 16.8 0.0 3.8
18:00 7.8 3.6 75 1011.6 8.3 W 16.8 0.0 3.8
18:01 7.8 3.6 75 1011.7 9.8 W 16.8 0.0 3.8
18:02 7.8 3.6 75 1011.6 13.0 SW 16.8 0.0 3.8
18:03 7.7 3.6 75 1011.5 10.7 N 16.8 0.0 3.8
18:05 7.7 3.6 75 1011.6 13.0 SW 16.8 0.0 3.8
18:06 7.7 3.6 75 1011.8 14.5 NW 14.5 0.0 3.8
18:07 7.7 3.7 76 1011.7 10.7 W 14.5 0.0 3.8
18:08 7.7 3.7 76 1011.9 10.7 NW 14.5 0.0 3.8
18:09 7.7 3.7 76 1011.7 13.6 W 14.5 0.0 3.8
18:10 7.7 3.7 76 1011.8 13.6 W 14.5 0.0 3.8
18:11 7.7 3.7 76 1011.8 13.6 W 14.5 0.0 3.8
18:12 7.7 3.7 76 1011.7 11.4 W 14.5 0.0 3.8
18:13 7.7 3.7 76 1011.8 12.1 SW 14.5 0.0 3.8
18:14 7.7 3.7 76 1011.8 13.6 SW 14.5 0.0 3.8
18:15 7.7 3.7 76 1011.8 9.8 W 14.5 0.0 3.8
18:16 7.7 3.7 76 1011.8 12.1 W 15.2 0.0 3.8
18:17 7.7 3.9 77 1011.8 14.5 W 15.2 0.0 3.8
18:18 7.7 3.9 77 1012.0 10.7 W 15.9 0.0 3.8
18:19 7.7 3.9 77 1011.8 10.7 W 15.9 0.0 3.8
18:21 7.7 3.9 77 1011.7 13.0 W 15.9 0.0 3.8
18:22 7.7 3.9 77 1011.8 13.6 SW 20.6 0.0 3.8
18:23 7.8 4.0 77 1011.8 12.1 SW 20.6 0.0 3.8
18:24 7.8 4.0 77 1011.9 13.6 W 20.6 0.0 3.8
18:25 7.8 4.0 77 1011.9 11.4 SW 20.6 0.0 3.8
18:26 7.8 4.0 77 1012.0 11.4 W 20.6 0.0 3.8
18:27 7.8 4.0 77 1012.0 14.5 NW 20.6 0.0 3.8
18:28 7.8 3.8 76 1011.9 12.1 NW 20.6 0.0 3.8
18:29 7.8 4.0 77 1012.0 15.2 W 20.6 0.0 3.8
18:30 7.8 4.0 77 1012.0 15.9 NW 20.6 0.0 3.8
18:31 7.8 4.0 77 1012.1 15.9 W 20.6 0.0 3.8
18:32 7.8 4.0 77 1011.9 7.6 W 20.6 0.0 3.8
18:33 7.8 4.0 77 1012.1 9.8 W 15.9 0.0 3.8
18:34 7.8 4.0 77 1012.2 13.6 SW 15.9 0.0 3.8
18:35 7.8 4.0 77 1012.2 10.7 W 15.9 0.0 3.8
18:37 7.8 4.0 77 1011.9 17.4 W 17.4 0.0 3.8
18:38 7.8 4.0 77 1011.9 17.4 W 17.4 0.0 3.8
18:39 7.9 4.3 78 1012.0 10.7 W 17.4 0.0 3.8
18:40 7.9 4.3 78 1012.0 8.3 SW 17.4 0.0 3.8
18:41 7.9 4.3 78 1012.0 9.2 NW 17.4 0.0 3.8
18:42 7.9 4.3 78 1011.9 9.2 NW 17.4 0.0 3.8
18:43 7.9 4.3 78 1012.2 10.7 W 17.4 0.0 3.8
18:44 7.9 4.3 78 1012.2 13.6 NW 17.4 0.0 3.8
18:45 7.9 4.3 78 1011.9 10.7 SW 17.4 0.0 3.8
18:46 7.9 4.3 78 1011.9 10.7 SW 17.4 0.0 3.8
18:47 7.9 4.3 78 1012.1 13.6 W 17.4 0.0 3.8
18:48 7.9 4.3 78 1012.0 16.8 SW 17.4 0.0 3.8
18:49 7.9 4.3 78 1012.1 16.8 W 16.8 0.0 3.8
18:50 7.9 4.1 77 1012.0 16.8 SW 16.8 0.0 3.8
18:51 7.9 3.9 76 1012.1 18.3 W 18.3 0.0 3.8
18:53 7.8 3.6 75 1012.2 10.7 W 18.3 0.0 3.8
18:54 7.8 3.5 74 1012.0 15.9 NW 18.3 0.0 3.8
18:55 7.8 3.5 74 1011.8 11.4 NW 18.3 0.0 3.8
18:56 7.8 3.5 74 1011.8 13.6 W 18.3 0.0 3.8
18:57 7.7 3.4 74 1011.9 12.1 WNW 18.3 0.0 3.8
18:58 7.7 3.4 74 1012.0 13.6 NW 18.3 0.0 3.8
18:59 7.7 3.2 73 1012.0 9.2 SW 18.3 0.0 3.8
19:00 7.7 3.2 73 1012.2 9.2 W 18.3 0.0 3.8
19:01 7.7 3.2 73 1012.0 9.2 W 18.3 0.0 3.8
19:02 7.7 3.2 73 1012.0 9.2 W 15.9 0.0 3.8
19:03 7.7 3.2 73 1012.0 9.2 W 15.9 0.0 3.8
19:04 7.7 3.2 73 1012.2 9.2 W 15.9 0.0 3.8
19:05 7.7 3.2 73 1012.2 9.2 W 13.6 0.0 3.8
19:06 7.6 3.5 75 1012.0 10.7 NW 13.6 0.0 3.8
19:07 7.6 3.5 75 1012.1 10.7 W 13.6 0.0 3.8
19:08 7.6 3.5 75 1012.0 10.7 WSW 10.7 0.0 3.8
19:09 7.6 3.6 76 1012.0 11.4 W 11.4 0.0 3.8
19:11 7.5 3.5 76 1012.2 9.2 NW 13.0 0.0 3.8
19:12 7.5 3.7 77 1012.0 10.7 W 13.0 0.0 3.8
19:13 7.5 3.7 77 1012.0 11.4 N 13.0 0.0 3.8
19:14 7.5 3.7 77 1012.1 12.1 NW 13.0 0.0 3.8
19:15 7.5 3.7 77 1012.2 12.1 W 13.0 0.0 3.8
19:16 7.5 3.7 77 1012.4 7.6 NW 13.0 0.0 3.8
19:17 7.4 4.4 81 1012.1 9.2 SW 13.0 0.0 3.8
19:18 7.4 4.4 81 1012.2 12.1 W 13.0 0.0 3.8
19:19 7.4 4.2 80 1012.0 13.0 W 13.0 0.0 3.8
19:20 7.4 4.2 80 1012.1 9.2 W 13.0 0.0 3.8
19:21 7.4 4.2 80 1012.3 9.8 W 13.0 0.0 3.8
19:22 7.4 4.2 80 1012.2 12.1 W 13.0 0.0 3.8
19:23 7.4 4.2 80 1012.2 15.2 W 15.2 0.0 3.8
19:24 7.4 4.2 80 1012.1 8.3 SW 15.2 0.0 3.8
19:25 7.5 3.5 76 1012.3 8.3 WNW 15.2 0.0 3.8
19:26 7.5 3.5 76 1012.1 11.4 SW 15.2 0.0 3.8
19:27 7.5 3.5 76 1012.0 13.0 W 15.2 0.0 3.8
19:29 7.5 3.4 75 1012.1 10.7 SW 15.2 0.0 3.8
19:30 7.5 3.4 75 1012.3 9.8 W 15.2 0.0 3.8
19:31 7.5 3.4 75 1012.4 7.6 W 15.2 0.0 3.8
19:32 7.5 3.4 75 1012.1 7.6 NW 15.2 0.0 3.8
19:33 7.5 3.4 75 1012.1 10.7 NW 13.0 0.0 3.8
19:34 7.5 3.4 75 1012.3 10.7 W 13.0 0.0 3.8
19:35 7.5 3.4 75 1012.2 8.3 NW 13.0 0.0 3.8
19:36 7.5 3.4 75 1012.3 9.8 W 13.0 0.0 3.8
19:37 7.5 3.4 75 1012.6 13.6 W 13.6 0.0 3.8
19:38 7.5 3.4 75 1012.1 15.2 NW 15.2 0.0 3.8
19:39 7.5 3.4 75 1012.4 18.3 NW 18.3 0.0 3.8
19:40 7.6 3.5 75 1012.3 12.1 W 18.3 0.0 3.8
19:41 7.6 3.5 75 1012.2 10.7 N 18.3 0.0 3.8
19:42 7.6 3.5 75 1012.6 12.1 SW 18.3 0.0 3.8
19:43 7.6 3.3 74 1012.4 16.8 W 18.3 0.0 3.8
19:45 7.6 3.3 74 1012.4 13.6 W 18.3 0.0 3.8
19:46 7.6 3.1 73 1012.4 13.0 W 18.3 0.0 3.8
19:47 7.6 3.1 73 1012.4 11.4 W 18.3 0.0 3.8
19:48 7.6 3.1 73 1012.4 13.0 SW 18.3 0.0 3.8
19:49 7.6 3.1 73 1012.4 12.1 NW 17.4 0.0 3.8
19:50 7.6 3.1 73 1012.3 13.0 WSW 17.4 0.0 3.8
19:51 7.6 3.1 73 1012.4 7.6 NW 17.4 0.0 3.8
19:52 7.5 2.8 72 1012.5 13.6 S 17.4 0.0 3.8
19:53 7.5 2.8 72 1012.2 12.1 WNW 17.4 0.0 3.8
19:54 7.5 2.8 72 1012.4 9.2 W 17.4 0.0 3.8
19:55 7.4 3.6 77 1012.3 9.2 W 13.6 0.0 3.8
19:56 7.4 3.6 77 1012.3 17.4 W 17.4 0.0 3.8
19:57 7.4 3.6 77 1012.5 12.1 SW 17.4 0.0 3.8
19:58 7.4 3.6 77 1012.3 10.7 W 17.4 0.0 3.8
19:59 7.4 3.8 78 1012.3 9.2 SW 17.4 0.0 3.8
20:01 7.3 3.7 78 1012.2 9.2 W 17.4 0.0 3.8
20:02 7.3 3.7 78 1012.4 8.3 NW 17.4 0.0 3.8
20:03 7.3 3.7 78 1012.2 7.6 WNW 17.4 0.0 3.8
20:04 7.2 3.6 78 1012.3 9.8 SW 17.4 0.0 3.8
20:05 7.2 3.8 79 1012.3 7.6 W 17.4 0.0 3.8
20:06 7.2 3.8 79 1012.0 9.8 W 17.4 0.0 3.8
20:07 7.2 3.8 79 1012.3 9.8 W 13.6 0.0 3.8
20:08 7.1 3.7 79 1012.2 9.2 W 13.6 0.0 3.8
20:09 7.1 3.7 79 1012.4 7.6 SW 10.7 0.0 3.8
20:10 7.1 3.7 79 1012.2 9.2 W 10.7 0.0 3.8
20:11 7.1 3.7 79 1012.3 9.2 W 10.7 0.0 3.8
20:12 7.1 3.7 79 1012.4 8.3 W 10.7 0.0 3.8
20:13 7.0 3.6 79 1012.0 9.2 W 9.8 0.0 3.8
20:14 7.0 3.6 79 1012.1 13.6 W 13.6 0.0 3.8
20:15 7.0 3.6 79 1012.3 13.6 W 13.6 0.0 3.8
20:17 7.0 3.6 79 1012.1 9.8 W 13.6 0.0 3.8
20:18 7.0 3.6 79 1012.2 12.1 W 13.6 0.0 3.8
20:19 7.0 3.6 79 1012.1 12.1 W 13.6 0.0 3.8
20:20 7.0 3.6 79 1011.9 6.9 W 13.6 0.0 3.8
20:21 7.0 3.6 79 1012.2 5.4 NW 13.6 0.0 3.8
20:22 7.0 3.6 79 1012.1 6.0 W 13.6 0.0 3.8
20:23 7.0 3.6 79 1012.0 6.0 W 13.6 0.0 3.8
20:24 7.0 3.8 80 1012.0 7.6 W 13.6 0.0 3.8
20:25 7.0 3.8 80 1012.1 6.0 W 13.6 0.0 3.8
20:26 7.0 3.8 80 1012.3 5.4 W 12.1 0.0 3.8
20:27 7.0 3.8 80 1012.2 5.4 W 12.1 0.0 3.8
20:28 7.0 3.8 80 1012.2 4.5 W 12.1 0.0 3.8
20:29 7.0 3.8 80 1012.1 5.4 NW 12.1 0.0 3.8
20:31 7.0 3.8 80 1012.2 9.2 WNW 9.2 0.0 3.8
20:32 7.0 3.8 80 1012.2 6.0 SW 9.2 0.0 3.8
20:33 7.0 3.8 80 1012.0 6.0 W 9.2 0.0 3.8
20:34 7.0 3.8 80 1012.1 6.0 W 9.2 0.0 3.8
20:35 7.0 3.8 80 1012.1 6.0 W 9.2 0.0 3.8
20:36 7.0 3.8 80 1012.2 5.4 SW 9.2 0.0 3.8
20:37 7.0 4.0 81 1012.3 5.4 W 9.2 0.0 3.8
20:38 7.0 4.0 81 1012.1 4.5 W 9.2 0.0 3.8
20:39 7.0 4.0 81 1012.3 5.4 W 9.2 0.0 3.8
20:40 7.0 4.0 81 1012.1 5.4 W 9.2 0.0 3.8
20:41 7.0 4.0 81 1012.1 4.5 W 9.2 0.0 3.8
20:42 7.0 4.0 81 1012.2 4.5 W 6.0 0.0 3.8
20:43 7.0 4.0 81 1012.3 4.5 W 6.0 0.0 3.8
20:44 7.0 4.0 81 1012.3 6.0 W 6.0 0.0 3.8
20:45 7.0 4.0 81 1012.2 4.5 W 6.0 0.0 3.8
20:46 7.0 4.1 82 1012.2 5.4 W 6.0 0.0 3.8
20:48 6.9 4.0 82 1012.0 4.5 W 6.0 0.0 3.8
20:49 6.9 4.0 82 1012.1 4.5 W 6.0 0.0 3.8
20:50 6.9 4.0 82 1012.1 5.4 W 6.0 0.0 3.8
20:51 6.9 4.0 82 1012.1 5.4 W 6.0 0.0 3.8
20:52 6.9 4.0 82 1012.2 6.9 W 6.9 0.0 3.8
20:53 6.9 4.0 82 1012.3 6.9 W 6.9 0.0 3.8
20:54 6.8 3.9 82 1012.2 5.4 NW 6.9 0.0 3.8
20:55 6.8 4.1 83 1012.2 4.5 NW 6.9 0.0 3.8
20:56 6.8 4.1 83 1012.0 6.0 W 6.9 0.0 3.8
20:57 6.8 4.1 83 1012.2 4.5 W 6.9 0.0 3.8
20:58 6.8 4.1 83 1012.1 5.4 W 6.9 0.0 3.8
20:59 6.8 4.1 83 1012.2 5.4 W 6.9 0.0 3.8
21:00 6.8 4.1 83 1012.1 5.4 W 6.9 0.0 3.8
21:01 6.8 4.1 83 1012.0 5.4 W 6.9 0.0 3.8
21:03 6.8 4.1 83 1012.2 5.4 W 6.0 0.0 3.8
21:04 6.8 4.1 83 1012.0 5.4 W 6.0 0.0 3.8
21:05 6.8 4.1 83 1012.1 5.4 W 6.0 0.0 3.8
21:06 6.8 4.1 83 1012.0 5.4 W 6.0 0.0 3.8
21:07 6.6 3.9 83 1012.2 7.6 NW 7.6 0.0 3.8
21:08 6.6 3.9 83 1012.0 6.9 W 7.6 0.0 3.8
21:09 6.6 3.9 83 1012.2 6.0 W 7.6 0.0 3.8
21:10 6.6 3.9 83 1012.2 5.4 NW 7.6 0.0 3.8
21:11 6.6 3.9 83 1011.9 5.4 W 7.6 0.0 3.8
21:12 6.5 3.8 83 1011.9 6.9 W 7.6 0.0 3.8
21:13 6.5 3.8 83 1011.8 8.3 W 8.3 0.0 3.8
21:14 6.5 3.8 83 1012.1 6.9 W 8.3 0.0 3.8
21:15 6.5 3.8 83 1012.0 8.3 SW 8.3 0.0 3.8
21:16 6.4 3.7 83 1012.1 9.2 SW 9.2 0.0 3.8
21:17 6.4 3.7 83 1011.9 7.6 W 9.2 0.0 3.8
21:18 6.4 3.7 83 1012.0 7.6 W 9.2 0.0 3.8
21:19 6.4 3.7 83 1012.0 6.9 W 9.2 0.0 3.8
21:20 6.3 3.6 83 1012.1 6.9 W 9.2 0.0 3.8
21:22 6.3 3.5 82 1012.2 8.3 W 9.2 0.0 3.8
21:23 6.3 3.5 82 1012.0 7.6 SW 9.2 0.0 3.8
21:24 6.3 3.5 82 1012.0 6.9 SW 9.2 0.0 3.8
21:25 6.3 3.5 82 1012.0 6.9 W 9.2 0.0 3.8
21:26 6.3 3.5 82 1012.2 7.6 SW 8.3 0.0 3.8
21:27 6.3 3.5 82 1012.1 8.3 W 8.3 0.0 3.8
21:28 6.3 3.5 82 1012.3 8.3 NW 8.3 0.0 3.8
21:29 6.3 3.5 82 1012.2 9.2 W 9.2 0.0 3.8
21:30 6.3 3.5 82 1012.1 6.9 S 9.2 0.0 3.8
21:31 6.2 3.4 82 1012.1 9.2 W 9.2 0.0 3.8
21:32 6.2 3.4 82 1012.1 9.2 W 9.2 0.0 3.8
21:33 6.2 3.4 82 1012.0 6.9 W 9.2 0.0 3.8
21:34 6.2 3.4 82 1012.1 6.9 W 9.2 0.0 3.8
21:35 6.2 3.4 82 1012.0 6.9 SW 9.2 0.0 3.8
21:36 6.2 3.4 82 1012.1 9.8 SW 9.8 0.0 3.8
21:38 6.2 3.4 82 1012.0 8.3 W 9.8 0.0 3.8
21:39 6.2 3.2 81 1012.1 8.3 W 9.8 0.0 3.8
21:40 6.3 3.5 82 1012.0 8.3 NW 9.8 0.0 3.8
21:41 6.3 3.5 82 1012.2 8.3 NW 9.8 0.0 3.8
21:42 6.3 3.5 82 1011.9 6.9 W 9.8 0.0 3.8
21:43 6.3 3.5 82 1012.1 7.6 W 9.8 0.0 3.8
21:44 6.3 3.5 82 1012.1 6.0 W 9.8 0.0 3.8
21:45 6.3 3.5 82 1012.1 7.6 NW 9.8 0.0 3.8
21:46 6.3 3.5 82 1012.0 7.6 W 9.8 0.0 3.8
21:47 6.3 3.5 82 1012.2 7.6 W 9.8 0.0 3.8
21:48 6.3 3.5 82 1012.0 7.6 W 9.2 0.0 3.8
21:49 6.3 3.5 82 1012.1 7.6 W 8.3 0.0 3.8
21:50 6.3 3.5 82 1011.9 11.4 W 11.4 0.0 3.8
21:51 6.3 3.5 82 1012.0 9.2 W 11.4 0.0 3.8
21:52 6.3 3.5 82 1012.2 9.2 W 11.4 0.0 3.8
21:54 6.3 3.5 82 1012.2 6.0 NW 11.4 0.0 3.8
21:55 6.3 3.5 82 1011.9 9.8 SW 11.4 0.0 3.8
21:56 6.3 3.5 82 1012.1 8.3 W 11.4 0.0 3.8
21:57 6.3 3.5 82 1012.2 9.8 W 11.4 0.0 3.8
21:58 6.3 3.5 82 1012.2 6.9 SW 11.4 0.0 3.8
21:59 6.3 3.5 82 1012.1 7.6 W 11.4 0.0 3.8
22:00 6.3 3.5 82 1011.9 5.4 N 11.4 0.0 3.8
22:01 6.3 3.5 82 1012.0 5.4 W 11.4 0.0 3.8
22:02 6.3 3.5 82 1012.0 5.4 W 9.8 0.0 3.8
22:03 6.3 3.5 82 1012.2 6.9 W 9.8 0.0 3.8
22:04 6.3 3.5 82 1011.8 6.9 W 9.8 0.0 3.8
22:05 6.3 3.5 82 1011.9 7.6 NW 9.8 0.0 3.8
22:06 6.3 3.5 82 1011.8 7.6 SW 9.8 0.0 3.8
22:07 6.3 3.5 82 1012.1 6.0 W 8.3 0.0 3.8
22:09 6.2 3.4 82 1011.9 6.0 W 8.3 0.0 3.8
22:10 6.2 3.4 82 1011.9 4.5 SW 8.3 0.0 3.8
22:11 6.2 3.4 82 1012.0 6.0 W 8.3 0.0 3.8
22:12 6.2 3.4 82 1012.0 6.0 W 8.3 0.0 3.8
22:13 6.1 3.3 82 1011.9 5.4 SW 8.3 0.0 3.8
22:14 6.1 3.1 81 1012.0 5.4 SW 8.3 0.0 3.8
22:15 6.1 3.1 81 1011.9 5.4 SW 8.3 0.0 3.8
22:16 6.1 3.1 81 1011.8 5.4 W 8.3 0.0 3.8
22:17 6.0 3.0 81 1011.9 4.5 SW 8.3 0.0 3.8
22:18 6.0 3.0 81 1011.8 3.8 SW 8.3 0.0 3.8
22:19 6.0 3.0 81 1012.0 4.5 SW 6.0 0.0 3.8
22:20 6.0 3.0 81 1011.8 5.4 SW 6.0 0.0 3.8
22:21 5.9 2.9 81 1011.9 5.4 SW 6.0 0.0 3.8
22:22 5.9 2.9 81 1012.0 3.8 SW 5.4 0.0 3.8
22:24 5.8 2.8 81 1012.0 4.5 SW 5.4 0.0 3.8
22:25 5.8 2.8 81 1012.0 5.4 W 5.4 0.0 3.8
22:26 5.7 2.7 81 1011.9 4.5 SW 5.4 0.0 3.8
22:27 5.7 2.7 81 1011.9 4.5 SW 5.4 0.0 3.8
22:28 5.7 2.7 81 1011.8 3.8 W 5.4 0.0 3.8
22:29 5.7 2.7 81 1011.9 2.2 W 5.4 0.0 3.8
22:30 5.7 2.7 81 1011.8 2.2 SW 5.4 0.0 3.8
22:31 5.7 2.7 81 1011.6 2.2 SW 5.4 0.0 3.8
22:32 5.6 2.6 81 1011.8 3.1 SW 5.4 0.0 3.8
22:33 5.6 2.6 81 1012.0 3.1 SW 5.4 0.0 3.8
22:34 5.6 2.6 81 1011.8 3.1 S 5.4 0.0 3.8
22:35 5.5 2.5 81 1011.7 3.8 SW 5.4 0.0 3.8
22:36 5.5 2.5 81 1011.8 2.2 SW 4.5 0.0 3.8
22:37 5.5 2.5 81 1011.8 2.2 SW 3.8 0.0 3.8
22:39 5.4 2.4 81 1011.7 2.2 SW 3.8 0.0 3.8
22:40 5.4 2.4 81 1011.7 2.2 SW 3.8 0.0 3.8
22:41 5.4 2.4 81 1011.7 2.2 SW 3.8 0.0 3.8
22:42 5.3 2.3 81 1011.8 2.2 SW 3.8 0.0 3.8
22:43 5.3 2.3 81 1011.8 2.2 SW 3.8 0.0 3.8
22:44 5.3 2.3 81 1011.7 2.2 SW 3.8 0.0 3.8
22:45 5.3 2.5 82 1011.8 2.2 SW 3.8 0.0 3.8
22:46 5.3 2.5 82 1011.6 2.2 SW 2.2 0.0 3.8
22:47 5.3 2.5 82 1011.6 2.2 SW 2.2 0.0 3.8
22:48 5.3 2.5 82 1011.6 2.2 SW 2.2 0.0 3.8
22:49 5.3 2.5 82 1011.4 3.1 SW 3.1 0.0 3.8
22:50 5.3 2.5 82 1011.6 2.2 S 3.1 0.0 3.8
22:51 5.3 2.5 82 1011.5 2.2 S 3.1 0.0 3.8
22:53 5.3 2.5 82 1011.5 1.6 SE 3.1 0.0 3.8
22:54 5.3 2.5 82 1011.4 1.6 SW 3.1 0.0 3.8
22:55 5.2 2.4 82 1011.4 2.2 SE 3.1 0.0 3.8
22:56 5.2 2.4 82 1011.5 2.2 S 3.1 0.0 3.8
22:57 5.2 2.4 82 1011.6 2.2 S 3.1 0.0 3.8
22:58 5.2 2.4 82 1011.7 2.2 S 3.1 0.0 3.8
22:59 5.2 2.4 82 1011.8 1.6 S 3.1 0.0 3.8
23:00 5.2 2.4 82 1011.8 1.6 SW 3.1 0.0 3.8
23:01 5.2 2.4 82 1011.7 1.6 SW 2.2 0.0 3.8
23:02 5.2 2.4 82 1012.0 1.6 SW 2.2 0.0 3.8
23:03 5.2 2.4 82 1011.8 1.6 SW 2.2 0.0 3.8
23:04 5.2 2.4 82 1012.0 1.6 SW 2.2 0.0 3.8
23:05 5.2 2.4 82 1011.7 1.6 SW 2.2 0.0 3.8
23:06 5.1 2.3 82 1011.8 2.2 S 2.2 0.0 3.8
23:07 5.1 2.3 82 1012.0 1.6 S 2.2 0.0 3.8
23:09 5.1 2.3 82 1011.7 1.6 S 2.2 0.0 3.8
23:10 5.1 2.3 82 1011.9 1.6 S 2.2 0.0 3.8
23:11 5.0 2.2 82 1011.8 1.6 S 2.2 0.0 3.8
23:12 5.0 2.2 82 1011.8 1.6 S 2.2 0.0 3.8
23:13 5.0 2.2 82 1011.7 2.2 S 2.2 0.0 3.8
23:14 5.1 2.3 82 1011.8 1.6 S 2.2 0.0 3.8
23:15 5.1 2.5 83 1011.6 1.6 S 2.2 0.0 3.8
23:16 5.1 2.5 83 1011.8 1.6 SW 2.2 0.0 3.8
23:17 5.1 2.5 83 1011.7 2.2 S 2.2 0.0 3.8
23:18 5.1 2.5 83 1011.5 1.6 S 2.2 0.0 3.8
23:19 5.0 2.4 83 1011.7 1.6 S 2.2 0.0 3.8
23:20 5.0 2.4 83 1011.7 1.6 S 2.2 0.0 3.8
23:21 5.0 2.4 83 1011.6 1.6 S 2.2 0.0 3.8
23:22 5.1 2.5 83 1011.6 1.6 SW 2.2 0.0 3.8
23:23 5.0 2.4 83 1011.8 1.6 S 2.2 0.0 3.8
23:24 5.1 2.5 83 1011.7 1.6 S 2.2 0.0 3.8
23:25 5.0 2.4 83 1011.7 1.6 SW 2.2 0.0 3.8
23:26 5.0 2.4 83 1011.9 1.6 SW 2.2 0.0 3.8
23:27 5.0 2.4 83 1011.8 1.6 SW 2.2 0.0 3.8
23:28 5.0 2.4 83 1011.7 0.7 SW 1.6 0.0 3.8
23:29 5.0 2.4 83 1012.0 0.7 SW 1.6 0.0 3.8
23:30 5.0 2.4 83 1012.0 0.7 SW 1.6 0.0 3.8
23:32 5.0 2.4 83 1011.8 0.7 NW 1.6 0.0 3.8
23:33 5.0 2.4 83 1011.9 0.7 NW 1.6 0.0 3.8
23:34 4.9 2.3 83 1011.8 1.6 W 1.6 0.0 3.8
23:35 4.9 2.3 83 1011.8 1.6 W 1.6 0.0 3.8
23:36 4.9 2.3 83 1011.7 1.6 WNW 1.6 0.0 3.8
23:37 4.9 2.3 83 1011.5 1.6 W 1.6 0.0 3.8
23:38 4.9 2.3 83 1011.9 1.6 W 1.6 0.0 3.8
23:39 4.9 2.3 83 1011.9 1.6 W 1.6 0.0 3.8
23:40 4.9 2.3 83 1011.8 1.6 W 1.6 0.0 3.8
23:41 4.8 2.2 83 1011.9 1.6 W 1.6 0.0 3.8
23:42 4.8 2.2 83 1011.8 0.7 W 1.6 0.0 3.8
23:43 4.8 2.2 83 1011.6 0.0 W 1.6 0.0 3.8
23:44 4.8 2.2 83 1011.6 0.0 W 1.6 0.0 3.8
23:46 4.7 2.1 83 1011.4 0.7 W 1.6 0.0 3.8
23:47 4.7 2.1 83 1011.7 0.7 NW 1.6 0.0 3.8
23:48 4.7 2.1 83 1011.5 0.0 N 1.6 0.0 3.8
23:49 4.7 2.1 83 1011.6 0.7 N 1.6 0.0 3.8
23:50 4.7 2.1 83 1011.4 0.0 N 1.6 0.0 3.8
23:51 4.6 2.0 83 1011.5 0.7 N 1.6 0.0 3.8
23:52 4.6 2.0 83 1011.7 0.7 N 0.7 0.0 3.8
23:53 4.6 2.0 83 1011.5 0.7 N 0.7 0.0 3.8
23:54 4.6 2.0 83 1011.5 0.0 N 0.7 0.0 3.8
23:55 4.6 2.0 83 1011.3 0.0 N 0.7 0.0 3.8
23:56 4.6 2.0 83 1011.2 0.7 E 0.7 0.0 3.8
23:57 4.5 1.9 83 1011.2 0.7 E 0.7 0.0 3.8
23:58 4.5 2.0 84 1011.2 0.7 E 0.7 0.0 3.8
23:59 4.5 2.0 84 1011.3 0.7 SE 0.7 0.0 3.8

 

 

UK - WEATHER STATION TOPSITES - UK World Weather Websites

Copyright © Carnkie Weather 2009 - 2022.